IPv6-only Website List

The following sites are only reachable via IPv6.
If you have a legacy connection which is not IPv6 capable, all of the sites below will fail to load.
Due to deficiencies in all current browsers, attempting to load IPv6-only websites from a legacy connection will display a generic error message such as "NXDOMAIN" or "host not found" which gives no clue as to what the problem is.
You can test your connectivity at a variety of sites such as https://ip6.biz a modern connection will show "IPv6: Supported" in green.
If you do not have IPv6 connectivity you should check the configuration of your device and/or router, or contact your ISP.
If you're unfortunate enough to only have legacy connectivity, you may be able to get access to the modern IPv6 Internet by using a service such as Cloudflare Warp, which works by using your out of date local connection to tunnel traffic via Cloudflare servers.
You can also use a website availability check such as https://testmyconnection.net to verify that the below sites are online. Clicking the "test" button next to each site does this automatically.

Note: Sites listed below with neither HTTP nor HTTPS are still IPv6 only, but are used for something other than web hosting.

Address Search: You can search for sites by their IPv6 addresses using wildcards. Use * to match any sequence of characters and ? to match a single character. For example, 2001:db8:* will find all sites with IPv6 addresses starting with "2001:db8:".

Exclude IPv6 Sites: You can exclude sites whose names start with "ipv6." by checking the "Exclude sites starting with 'ipv6.'" option. This is useful for filtering out IPv6-specific subdomains for otherwise dual-stacked sites.

For any queries/comments/feedback on this list, please contact bert [at] v6list [dot] firenzee [dot] com

Clear All

There are a total of 1,096,612 IPv6-only hosts in the database.

Showing 18,750 results for TLD .nl

Site Name HTTP HTTPS Last Checked IPv6 Addresses DNS Lookup Test
https://ipv6.meinensports.nl YES YES 2026-05-01 06:33:44 2a03:3b00:1:0:700a:b7ff:fe10:1286 DNS Lookup Test
https://ipv6.subglottischestenose.nl YES YES 2026-04-30 17:08:57 2a03:3b00:1:0:700a:b7ff:fe10:6750 DNS Lookup Test
https://ipv6.hostsmarter.nl YES YES 2026-04-30 11:51:01 2a03:3b00:1:0:700a:b7ff:fe10:7fe2 DNS Lookup Test
https://ipv6.zesta.nl YES YES 2026-04-30 09:34:30 2a12:5040:1:303:be24:11ff:fe24:ef6e DNS Lookup Test
https://ipv6.blinde-ed.nl YES YES 2026-04-30 02:41:18 2a12:5040:1:304:4c4c:3aff:fee3:9a95 DNS Lookup Test
https://ipv6.wijleidenop.nl YES YES 2026-04-29 18:38:50 2a03:3b00:1:0:700a:b7ff:fe10:4279 DNS Lookup Test
https://ipv6.wojtech.nl YES YES 2026-04-29 13:00:23 2a03:3b00:1:0:700a:b7ff:fe10:5fbb DNS Lookup Test
https://ipv6.thkg.nl YES YES 2026-04-29 11:36:31 2a03:3b00:1:0:700a:b7ff:fe10:3e6c DNS Lookup Test
https://ipv6.webshoprestaurantamsterdammertje.nl YES YES 2026-04-29 11:33:36 2a03:3b00:1:0:700a:b7ff:fe10:7fe2 DNS Lookup Test
https://ipv6.seijkensacc.nl YES YES 2026-04-29 11:10:51 2a03:3b00:1:0:700a:b7ff:fe10:4429 DNS Lookup Test
https://ipv6.radero.nl YES YES 2026-04-29 09:35:23 2a03:3b00:1:0:700a:b7ff:fe10:75d9 DNS Lookup Test
https://ipv6.tantejanny.nl YES YES 2026-04-29 09:31:25 2a03:3b00:1:0:700a:b7ff:fe10:4241 DNS Lookup Test
https://ipv6.munromanagement.nl YES YES 2026-04-29 09:23:28 2a03:3b00:1:0:700a:b7ff:fe10:4279 DNS Lookup Test
https://ipv6.kgv-arena.nl YES YES 2026-04-29 09:11:02 2a03:3b00:1:0:700a:b7ff:fe10:6750 DNS Lookup Test
https://ipv6.mennegaverhuur.nl YES YES 2026-04-29 08:31:41 2a03:3b00:1:0:700a:b7ff:fe10:4429 DNS Lookup Test
https://ipv6.ds-invest.nl YES YES 2026-04-29 07:46:21 2a03:3b00:1:0:700a:b7ff:fe10:5fbb DNS Lookup Test
https://ipv6.denarcismeparadox.nl YES YES 2026-04-29 07:24:10 2a03:3b00:1:0:700a:b7ff:fe10:4429 DNS Lookup Test
https://ipv6.breval.nl YES YES 2026-04-29 07:13:12 2a03:3b00:1:0:700a:b7ff:fe10:6c75 DNS Lookup Test
https://ipv6.cattery-silversparkle.nl YES YES 2026-04-29 07:09:06 2a03:3b00:1:0:700a:b7ff:fe10:3297 DNS Lookup Test
https://ipv6.allroundservicebriels.nl YES YES 2026-04-29 06:54:27 2a03:3b00:1:0:700a:b7ff:fe10:75d9 DNS Lookup Test
https://ipv6.mwtloodgieterhaarlem.nl YES YES 2026-04-29 02:10:15 2a03:3b00:1:0:700a:b7ff:fe10:4b0f DNS Lookup Test
https://ipv6.wtimmermans.nl YES YES 2026-04-29 00:22:33 2a03:3b00:1:0:700a:b7ff:fe10:3b2f DNS Lookup Test
https://ipv6.ultimateweb.nl YES YES 2026-04-28 19:50:31 2a03:3b00:1:0:700a:b7ff:fe10:3b2f DNS Lookup Test
https://ipv6.vaaspracht.nl YES YES 2026-04-28 19:50:31 2a03:3b00:1:0:700a:b7ff:fe10:3b2f DNS Lookup Test
https://ipv6.topfanfare.nl YES YES 2026-04-28 19:47:03 2a03:3b00:1:0:700a:b7ff:fe10:3b2f DNS Lookup Test
https://ipv6.schepertestconsultancy.nl YES YES 2026-04-28 19:30:04 2a03:3b00:1:0:700a:b7ff:fe10:3b2f DNS Lookup Test
https://ipv6.salfico.nl YES YES 2026-04-28 19:29:47 2a03:3b00:1:0:700a:b7ff:fe10:3b2f DNS Lookup Test
https://ipv6.mijnbhshop.nl YES YES 2026-04-28 19:06:26 2a03:3b00:1:0:700a:b7ff:fe10:3b2f DNS Lookup Test
https://ipv6.zinwijzer.nl YES YES 2026-04-28 17:04:07 2a03:3b00:1:0:700a:b7ff:fe10:5fbb DNS Lookup Test
https://ipv6.saestransport.nl YES YES 2026-04-28 16:59:47 2a03:3b00:1:0:700a:b7ff:fe10:75d9 DNS Lookup Test
https://ipv6.fossabellezzaschoonheidssalon.nl YES YES 2026-04-28 16:59:01 2a03:3b00:1:0:700a:b7ff:fe10:75d9 DNS Lookup Test
https://ipv6.wildenbergh.nl YES YES 2026-04-28 15:24:52 2a03:3b00:1:0:700a:b7ff:fe10:5fbb DNS Lookup Test
https://ipv6.vvedewieken27.nl YES YES 2026-04-28 15:22:55 2a03:3b00:1:0:700a:b7ff:fe10:5fbb DNS Lookup Test
https://ipv6.vocalstory.nl YES YES 2026-04-28 15:22:25 2a03:3b00:1:0:700a:b7ff:fe10:5fbb DNS Lookup Test
https://ipv6.vendelierincasso.nl YES YES 2026-04-28 15:22:00 2a03:3b00:1:0:700a:b7ff:fe10:5fbb DNS Lookup Test
https://ipv6.vbl-groep.nl YES YES 2026-04-28 15:19:29 2a03:3b00:1:0:700a:b7ff:fe10:5fbb DNS Lookup Test
https://ipv6.vanderijtdaken.nl YES YES 2026-04-28 15:18:08 2a03:3b00:1:0:700a:b7ff:fe10:5fbb DNS Lookup Test
https://ipv6.valkerijvlaming.nl YES YES 2026-04-28 15:17:26 2a03:3b00:1:0:700a:b7ff:fe10:5fbb DNS Lookup Test
https://ipv6.kresko.nl YES YES 2026-04-28 14:24:24 2a03:3b00:1:0:700a:b7ff:fe10:3b2f DNS Lookup Test
https://ipv6.vakantieparklangelille.nl YES YES 2026-04-28 14:21:51 2a03:3b00:1:0:700a:b7ff:fe10:6750 DNS Lookup Test
https://ipv6.whencompany.nl YES YES 2026-04-28 14:20:29 2a03:3b00:1:0:700a:b7ff:fe10:7d00 DNS Lookup Test
https://ipv6.wesselvanhemert.nl YES YES 2026-04-28 14:20:25 2a03:3b00:1:0:700a:b7ff:fe10:4b0f DNS Lookup Test
https://ipv6.vuurgang.nl YES YES 2026-04-28 14:18:42 2a03:3b00:1:0:700a:b7ff:fe10:7d00 DNS Lookup Test
https://ipv6.jenniferpower.nl YES YES 2026-04-28 14:17:33 2a03:3b00:1:0:700a:b7ff:fe10:3b2f DNS Lookup Test
https://ipv6.vicenza-pizzeria.nl YES YES 2026-04-28 14:16:38 2a03:3b00:1:0:700a:b7ff:fe10:7d00 DNS Lookup Test
https://ipv6.vduivenboden.nl YES YES 2026-04-28 14:15:51 2a03:3b00:1:0:700a:b7ff:fe10:7d00 DNS Lookup Test
https://ipv6.humanitasnoordlimburg.nl YES YES 2026-04-28 14:12:57 2a03:3b00:1:0:700a:b7ff:fe10:3b2f DNS Lookup Test
https://ipv6.theaterdemaagd.nl YES YES 2026-04-28 14:08:04 2a03:3b00:1:0:700a:b7ff:fe10:4b0f DNS Lookup Test
https://ipv6.hellobeauty.nl YES YES 2026-04-28 14:07:36 2a03:3b00:1:0:700a:b7ff:fe10:3b2f DNS Lookup Test
https://ipv6.teamstrijd.nl YES YES 2026-04-28 14:06:47 2a03:3b00:1:0:700a:b7ff:fe10:4b0f DNS Lookup Test
https://ipv6.setersmontage.nl YES YES 2026-04-28 13:59:56 2a03:3b00:1:0:700a:b7ff:fe10:4b0f DNS Lookup Test
https://ipv6.samper.nl YES YES 2026-04-28 13:58:07 2a03:3b00:1:0:700a:b7ff:fe10:6750 DNS Lookup Test
https://ipv6.rvkmetselwerken.nl YES YES 2026-04-28 13:54:49 2a03:3b00:1:0:700a:b7ff:fe10:4b0f DNS Lookup Test
https://ipv6.rvdesigns.nl YES YES 2026-04-28 13:54:48 2a03:3b00:1:0:700a:b7ff:fe10:4b0f DNS Lookup Test
https://ipv6.roberica.nl YES YES 2026-04-28 13:53:15 2a03:3b00:1:0:700a:b7ff:fe10:6750 DNS Lookup Test
https://ipv6.vijfzes.nl YES YES 2026-04-28 13:52:22 2a03:3b00:1:0:700a:b7ff:fe10:3e6c DNS Lookup Test
https://ipv6.dbrans.nl YES YES 2026-04-28 13:46:00 2a03:3b00:1:0:700a:b7ff:fe10:3b2f DNS Lookup Test
https://ipv6.tandartsenpraktijkmerwesteijn.nl YES YES 2026-04-28 13:44:29 2a03:3b00:1:0:700a:b7ff:fe10:3e6c DNS Lookup Test
https://ipv6.quashee.nl YES YES 2026-04-28 13:41:24 2a03:3b00:1:0:700a:b7ff:fe10:7d00 DNS Lookup Test
https://ipv6.vlotlease.nl YES YES 2026-04-28 13:40:29 2a03:3b00:1:0:700a:b7ff:fe10:5fbb DNS Lookup Test
https://ipv6.statenauto.nl YES YES 2026-04-28 13:38:56 2a03:3b00:1:0:700a:b7ff:fe10:3e6c DNS Lookup Test
https://ipv6.trimsalonmayke.nl YES YES 2026-04-28 13:35:59 2a03:3b00:1:0:700a:b7ff:fe10:7fe2 DNS Lookup Test
https://ipv6.thereformersociety.nl YES YES 2026-04-28 13:35:34 2a03:3b00:1:0:700a:b7ff:fe10:5fbb DNS Lookup Test
https://ipv6.trends4you.nl YES YES 2026-04-28 13:33:51 2a03:3b00:1:0:700a:b7ff:fe10:7fe2 DNS Lookup Test
https://ipv6.pokerboss.nl YES YES 2026-04-28 13:33:38 2a03:3b00:1:0:700a:b7ff:fe10:7d00 DNS Lookup Test
https://ipv6.theburnoutacademy.nl YES YES 2026-04-28 13:33:34 2a03:3b00:1:0:700a:b7ff:fe10:5fbb DNS Lookup Test
https://ipv6.pistersbv.nl YES YES 2026-04-28 13:33:27 2a03:3b00:1:0:700a:b7ff:fe10:7d00 DNS Lookup Test
https://ipv6.vroegh-advocatuur.nl YES YES 2026-04-28 13:32:53 2a03:3b00:1:0:700a:b7ff:fe10:4429 DNS Lookup Test
https://ipv6.vallingarestauratie.nl YES YES 2026-04-28 13:29:35 2a03:3b00:1:0:700a:b7ff:fe10:4429 DNS Lookup Test
https://ipv6.proposals.nl YES YES 2026-04-28 13:29:12 2a03:3b00:1:0:700a:b7ff:fe10:4b0f DNS Lookup Test
https://ipv6.perditarizzi-interimhradvies.nl YES YES 2026-04-28 13:28:00 2a03:3b00:1:0:700a:b7ff:fe10:7d00 DNS Lookup Test
https://ipv6.the-skinstudio.nl YES YES 2026-04-28 13:24:05 2a03:3b00:1:0:700a:b7ff:fe10:4429 DNS Lookup Test
https://ipv6.sagaflor.nl YES YES 2026-04-28 13:22:39 2a03:3b00:1:0:700a:b7ff:fe10:7fe2 DNS Lookup Test
https://ipv6.recyclablez.nl YES YES 2026-04-28 13:22:02 2a03:3b00:1:0:700a:b7ff:fe10:7fe2 DNS Lookup Test
https://ipv6.sosmonitor.nl YES YES 2026-04-28 13:21:19 2a03:3b00:1:0:700a:b7ff:fe10:4429 DNS Lookup Test
https://ipv6.sterkmetsterre.nl YES YES 2026-04-28 13:19:48 2a03:3b00:1:0:700a:b7ff:fe10:4429 DNS Lookup Test
https://ipv6.nucon.nl YES YES 2026-04-28 13:18:25 2a03:3b00:1:0:700a:b7ff:fe10:7d00 DNS Lookup Test
https://ipv6.rimokit.nl YES YES 2026-04-28 13:17:56 2a03:3b00:1:0:700a:b7ff:fe10:5fbb DNS Lookup Test
https://ipv6.rdoa.nl YES YES 2026-04-28 13:17:28 2a03:3b00:1:0:700a:b7ff:fe10:7fe2 DNS Lookup Test
https://ipv6.rjwolthuizen.nl YES YES 2026-04-28 13:15:51 2a03:3b00:1:0:700a:b7ff:fe10:5fbb DNS Lookup Test
https://ipv6.vdbal.nl YES YES 2026-04-28 13:15:03 2a03:3b00:1:0:700a:b7ff:fe10:75d9 DNS Lookup Test
https://ipv6.playincasino.nl YES YES 2026-04-28 13:12:48 2a03:3b00:1:0:700a:b7ff:fe10:7fe2 DNS Lookup Test
https://ipv6.studioforma.nl YES YES 2026-04-28 13:11:00 2a03:3b00:1:0:700a:b7ff:fe10:4241 DNS Lookup Test
https://ipv6.traiteurdohmen.nl YES YES 2026-04-28 12:19:28 2a03:3b00:1:0:700a:b7ff:fe10:4b0f DNS Lookup Test
https://ipv6.tabakado.nl YES YES 2026-04-28 12:17:38 2a03:3b00:1:0:700a:b7ff:fe10:4b0f DNS Lookup Test
https://ipv6.tandartsenpraktijkschiedam.nl YES YES 2026-04-28 12:17:36 2a03:3b00:1:0:700a:b7ff:fe10:4b0f DNS Lookup Test
https://ipv6.wilcovanderkolk.nl YES YES 2026-04-28 12:15:26 2a03:3b00:1:0:700a:b7ff:fe10:6c75 DNS Lookup Test
https://ipv6.visser603.nl YES YES 2026-04-28 12:11:45 2a03:3b00:1:0:700a:b7ff:fe10:6c75 DNS Lookup Test
https://ipv6.twanvanpaassen.nl YES YES 2026-04-28 12:11:22 2a03:3b00:1:0:700a:b7ff:fe10:4279 DNS Lookup Test
https://ipv6.tmacoldstores.nl YES YES 2026-04-28 12:05:27 2a03:3b00:1:0:700a:b7ff:fe10:4279 DNS Lookup Test
https://ipv6.voortgang-volgen.nl YES YES 2026-04-28 12:02:16 2a03:3b00:1:0:700a:b7ff:fe10:1cdf DNS Lookup Test
https://ipv6.modusrelay.nl YES YES 2026-04-28 11:59:59 2a03:3b00:1:0:700a:b7ff:fe10:4b0f DNS Lookup Test
https://ipv6.topfinance.nl YES YES 2026-04-28 11:53:46 2a03:3b00:1:0:700a:b7ff:fe10:1cdf DNS Lookup Test
https://ipv6.rentatech.nl YES YES 2026-04-28 11:53:16 2a03:3b00:1:0:700a:b7ff:fe10:6750 DNS Lookup Test
https://ipv6.smartcrest.nl YES YES 2026-04-28 11:49:34 2a03:3b00:1:0:700a:b7ff:fe10:4279 DNS Lookup Test
https://ipv6.stijlpastoor.nl YES YES 2026-04-28 11:48:12 2a03:3b00:1:0:700a:b7ff:fe10:1cdf DNS Lookup Test
https://ipv6.qofs.nl YES YES 2026-04-28 11:48:11 2a03:3b00:1:0:700a:b7ff:fe10:6750 DNS Lookup Test
https://ipv6.sinnemahuys.nl YES YES 2026-04-28 11:47:51 2a03:3b00:1:0:700a:b7ff:fe10:5fbb DNS Lookup Test
https://ipv6.re-source.nl YES YES 2026-04-28 11:46:47 2a03:3b00:1:0:700a:b7ff:fe10:5fbb DNS Lookup Test
https://ipv6.profile-oppelaar.nl YES YES 2026-04-28 11:46:22 2a03:3b00:1:0:700a:b7ff:fe10:6750 DNS Lookup Test
https://ipv6.reformed-leeuwarden.nl YES YES 2026-04-28 11:45:40 2a03:3b00:1:0:700a:b7ff:fe10:5fbb DNS Lookup Test
https://ipv6.kma-protex.nl YES YES 2026-04-28 11:43:20 2a03:3b00:1:0:700a:b7ff:fe10:4b0f DNS Lookup Test
https://ipv6.rschuurstucwerk.nl YES YES 2026-04-28 11:41:33 2a03:3b00:1:0:700a:b7ff:fe10:4279 DNS Lookup Test
https://ipv6.zweedsevakantie.nl YES YES 2026-04-28 11:40:25 2a03:3b00:1:0:700a:b7ff:fe10:20ec DNS Lookup Test
https://ipv6.vanderhorstonline.nl YES YES 2026-04-28 11:39:20 2a03:3b00:1:0:700a:b7ff:fe10:4241 DNS Lookup Test
https://ipv6.tvready.nl YES YES 2026-04-28 11:38:53 2a03:3b00:1:0:700a:b7ff:fe10:4241 DNS Lookup Test
https://ipv6.ronaldtouwadvies.nl YES YES 2026-04-28 11:38:47 2a03:3b00:1:0:700a:b7ff:fe10:1cdf DNS Lookup Test
https://ipv6.raaijmakersdressage.nl YES YES 2026-04-28 11:38:32 2a03:3b00:1:0:700a:b7ff:fe10:4279 DNS Lookup Test
https://ipv6.pand50leeuwarden.nl YES YES 2026-04-28 11:36:39 2a03:3b00:1:0:700a:b7ff:fe10:5fbb DNS Lookup Test
https://ipv6.oogstpark.nl YES YES 2026-04-28 11:36:31 2a03:3b00:1:0:700a:b7ff:fe10:6c75 DNS Lookup Test
https://ipv6.padelstad.nl YES YES 2026-04-28 11:36:30 2a03:3b00:1:0:700a:b7ff:fe10:5fbb DNS Lookup Test
https://ipv6.oa-energy.nl YES YES 2026-04-28 11:36:05 2a03:3b00:1:0:700a:b7ff:fe10:6c75 DNS Lookup Test
https://ipv6.pjjcentral.nl YES YES 2026-04-28 11:33:31 2a03:3b00:1:0:700a:b7ff:fe10:4279 DNS Lookup Test
https://ipv6.vosonions.nl YES YES 2026-04-28 11:32:27 2a03:3b00:1:0:700a:b7ff:fe10:20ec DNS Lookup Test
https://ipv6.munterholding.nl YES YES 2026-04-28 11:32:21 2a03:3b00:1:0:700a:b7ff:fe10:6c75 DNS Lookup Test
https://ipv6.nieuwgraafog.nl YES YES 2026-04-28 11:32:17 2a03:3b00:1:0:700a:b7ff:fe10:5fbb DNS Lookup Test
https://ipv6.parkvillaspurmerend.nl YES YES 2026-04-28 11:31:10 2a03:3b00:1:0:700a:b7ff:fe10:1cdf DNS Lookup Test
https://ipv6.stuurtaal.nl YES YES 2026-04-28 11:31:09 2a03:3b00:1:0:700a:b7ff:fe10:4241 DNS Lookup Test
https://ipv6.parfumgalerie.nl YES YES 2026-04-28 11:29:46 2a03:3b00:1:0:700a:b7ff:fe10:4279 DNS Lookup Test
https://ipv6.padelforbusiness.nl YES YES 2026-04-28 11:28:23 2a03:3b00:1:0:700a:b7ff:fe10:4279 DNS Lookup Test
https://ipv6.natureglow.nl YES YES 2026-04-28 11:24:50 2a03:3b00:1:0:700a:b7ff:fe10:1cdf DNS Lookup Test
https://ipv6.moorendroad.nl YES YES 2026-04-28 11:24:49 2a03:3b00:1:0:700a:b7ff:fe10:4279 DNS Lookup Test
https://ipv6.virgindrinksshop.nl YES YES 2026-04-28 11:24:44 2a03:3b00:1:0:700a:b7ff:fe10:3297 DNS Lookup Test
https://ipv6.my3bv.nl YES YES 2026-04-28 11:23:11 2a03:3b00:1:0:700a:b7ff:fe10:75d9 DNS Lookup Test
https://ipv6.kmagroup.nl YES YES 2026-04-28 11:21:06 2a03:3b00:1:0:700a:b7ff:fe10:6c75 DNS Lookup Test
https://ipv6.trkng.nl YES YES 2026-04-28 11:20:24 2a03:3b00:1:0:700a:b7ff:fe10:3297 DNS Lookup Test
https://ipv6.totaalbouwbeks.nl YES YES 2026-04-28 11:19:44 2a03:3b00:1:0:700a:b7ff:fe10:3297 DNS Lookup Test
https://ipv6.stichting-fefb.nl YES YES 2026-04-28 11:18:36 2a03:3b00:1:0:700a:b7ff:fe10:20ec DNS Lookup Test
https://ipv6.sorent.nl YES YES 2026-04-28 11:17:44 2a03:3b00:1:0:700a:b7ff:fe10:20ec DNS Lookup Test
https://ipv6.letterisno.nl YES YES 2026-04-28 11:17:34 2a03:3b00:1:0:700a:b7ff:fe10:4279 DNS Lookup Test
https://ipv6.nieuwe-regie.nl YES YES 2026-04-28 11:16:40 2a03:3b00:1:0:700a:b7ff:fe10:4241 DNS Lookup Test
https://ipv6.komopvisite.nl YES YES 2026-04-28 11:14:54 2a03:3b00:1:0:700a:b7ff:fe10:5fbb DNS Lookup Test
https://ipv6.kelesholding.nl YES YES 2026-04-28 11:14:03 2a03:3b00:1:0:700a:b7ff:fe10:75d9 DNS Lookup Test
https://ipv6.jipstudio.nl YES YES 2026-04-28 11:14:02 2a03:3b00:1:0:700a:b7ff:fe10:6c75 DNS Lookup Test
https://ipv6.matserbeheerbv.nl YES YES 2026-04-28 11:14:01 2a03:3b00:1:0:700a:b7ff:fe10:4241 DNS Lookup Test
https://ipv6.koningbamboe.nl YES YES 2026-04-28 11:12:57 2a03:3b00:1:0:700a:b7ff:fe10:4279 DNS Lookup Test
https://ipv6.lzdkkbeheer.nl YES YES 2026-04-28 11:12:48 2a03:3b00:1:0:700a:b7ff:fe10:4241 DNS Lookup Test
https://ipv6.karlijndijkshoorn.nl YES YES 2026-04-28 11:12:22 2a03:3b00:1:0:700a:b7ff:fe10:75d9 DNS Lookup Test
https://ipv6.isolaverde.nl YES YES 2026-04-28 11:12:00 2a03:3b00:1:0:700a:b7ff:fe10:6c75 DNS Lookup Test
https://ipv6.earthgames.nl YES YES 2026-04-28 11:11:17 2a03:3b00:1:0:700a:b7ff:fe10:6c75 DNS Lookup Test
https://ipv6.kermisouderkerk.nl YES YES 2026-04-28 11:10:13 2a03:3b00:1:0:700a:b7ff:fe10:4279 DNS Lookup Test
https://ipv6.kds-security.nl YES YES 2026-04-28 11:09:51 2a03:3b00:1:0:700a:b7ff:fe10:5fbb DNS Lookup Test
https://ipv6.krullenmagazine.nl YES YES 2026-04-28 11:09:37 2a03:3b00:1:0:700a:b7ff:fe10:4241 DNS Lookup Test
https://ipv6.inbetweencollective.nl YES YES 2026-04-28 11:09:10 2a03:3b00:1:0:700a:b7ff:fe10:75d9 DNS Lookup Test
https://ipv6.riddertotaalservice.nl YES YES 2026-04-28 11:07:13 2a03:3b00:1:0:700a:b7ff:fe10:3297 DNS Lookup Test
https://ipv6.stijl3.nl YES YES 2026-04-28 11:06:54 2a03:3b00:1:0:700a:b7ff:fe10:4429 DNS Lookup Test
https://ipv6.josbouman.nl YES YES 2026-04-28 11:06:34 2a03:3b00:1:0:700a:b7ff:fe10:4279 DNS Lookup Test
https://ipv6.sixteen-interieurbouw.nl YES YES 2026-04-28 11:06:25 2a03:3b00:1:0:700a:b7ff:fe10:4429 DNS Lookup Test
https://ipv6.velvetroom.nl YES YES 2026-04-28 11:06:04 2a03:3b00:1:0:700a:b7ff:fe10:7d00 DNS Lookup Test
https://ipv6.jouvoordeel.nl YES YES 2026-04-28 11:04:55 2a03:3b00:1:0:700a:b7ff:fe10:4241 DNS Lookup Test
https://ipv6.hostdashboard.nl YES YES 2026-04-28 11:04:17 2a03:3b00:1:0:700a:b7ff:fe10:4241 DNS Lookup Test
https://ipv6.rolukapteijnsbv.nl YES YES 2026-04-28 11:04:00 2a03:3b00:1:0:700a:b7ff:fe10:4429 DNS Lookup Test
https://ipv6.rijgersberginterimmanagement.nl YES YES 2026-04-28 11:00:51 2a03:3b00:1:0:700a:b7ff:fe10:4429 DNS Lookup Test
https://ipv6.reboundmagazine.nl YES YES 2026-04-28 10:58:41 2a03:3b00:1:0:700a:b7ff:fe10:3e6c DNS Lookup Test
https://ipv6.pitconsult.nl YES YES 2026-04-28 10:58:38 2a03:3b00:1:0:700a:b7ff:fe10:7fe2 DNS Lookup Test
https://ipv6.rainbowride.nl YES YES 2026-04-28 10:56:54 2a03:3b00:1:0:700a:b7ff:fe10:3e6c DNS Lookup Test
https://ipv6.pessotwente.nl YES YES 2026-04-28 10:56:37 2a03:3b00:1:0:700a:b7ff:fe10:7fe2 DNS Lookup Test
https://ipv6.passievooroverzicht.nl YES YES 2026-04-28 10:54:34 2a03:3b00:1:0:700a:b7ff:fe10:7fe2 DNS Lookup Test
https://ipv6.vlaamsfriteshuis-loket13.nl YES YES 2026-04-28 10:52:50 2a03:3b00:1:0:700a:b7ff:fe10:3297 DNS Lookup Test
https://ipv6.tandartspraktijkveenstra.nl YES YES 2026-04-28 10:49:31 2a03:3b00:1:0:700a:b7ff:fe10:3297 DNS Lookup Test
https://ipv6.mwtloodgieterdriebergen.nl YES YES 2026-04-28 10:48:51 2a03:3b00:1:0:700a:b7ff:fe10:6c75 DNS Lookup Test
https://ipv6.ricatec.nl YES YES 2026-04-28 10:45:28 2a03:3b00:1:0:700a:b7ff:fe10:3297 DNS Lookup Test
https://ipv6.mentrixbureau.nl YES YES 2026-04-28 10:41:31 2a03:3b00:1:0:700a:b7ff:fe10:7d00 DNS Lookup Test
https://ipv6.memekaer.nl YES YES 2026-04-28 10:40:05 2a03:3b00:1:0:700a:b7ff:fe10:7fe2 DNS Lookup Test
https://ipv6.nickbouland.nl YES YES 2026-04-28 10:39:15 2a03:3b00:1:0:700a:b7ff:fe10:20ec DNS Lookup Test
https://ipv6.martenwinters.nl YES YES 2026-04-28 10:38:59 2a03:3b00:1:0:700a:b7ff:fe10:7fe2 DNS Lookup Test
https://ipv6.matrasatelier-shop.nl YES YES 2026-04-28 10:38:05 2a03:3b00:1:0:700a:b7ff:fe10:7d00 DNS Lookup Test
https://ipv6.luxurylifestyleboutique.nl YES YES 2026-04-28 10:36:43 2a03:3b00:1:0:700a:b7ff:fe10:7fe2 DNS Lookup Test
https://ipv6.eloshe.nl YES YES 2026-04-28 10:36:21 2a03:3b00:1:0:700a:b7ff:fe10:5fbb DNS Lookup Test
https://ipv6.minestarconsultancy.nl YES YES 2026-04-28 10:36:13 2a03:3b00:1:0:700a:b7ff:fe10:20ec DNS Lookup Test
https://ipv6.mangomobilitywestfriesland.nl YES YES 2026-04-28 10:34:41 2a03:3b00:1:0:700a:b7ff:fe10:4429 DNS Lookup Test
https://ipv6.loodgieterzorg.nl YES YES 2026-04-28 10:34:37 2a03:3b00:1:0:700a:b7ff:fe10:7fe2 DNS Lookup Test
https://ipv6.main1.nl YES YES 2026-04-28 10:33:05 2a03:3b00:1:0:700a:b7ff:fe10:5fbb DNS Lookup Test
https://ipv6.siegerhansma.nl YES YES 2026-04-28 10:32:46 2a03:3b00:1:0:700a:b7ff:fe10:1cdf DNS Lookup Test
https://ipv6.homegardenmetalart.nl YES YES 2026-04-28 10:31:14 2a03:3b00:1:0:700a:b7ff:fe10:6c75 DNS Lookup Test
https://ipv6.liviafoundation.nl YES YES 2026-04-28 10:31:12 2a03:3b00:1:0:700a:b7ff:fe10:4429 DNS Lookup Test
https://ipv6.leeeke.nl YES YES 2026-04-28 10:28:49 2a03:3b00:1:0:700a:b7ff:fe10:4429 DNS Lookup Test
https://ipv6.pepperpack.nl YES YES 2026-04-28 10:26:01 2a03:3b00:1:0:700a:b7ff:fe10:1cdf DNS Lookup Test
https://ipv6.kuehl.nl YES YES 2026-04-28 10:25:50 2a03:3b00:1:0:700a:b7ff:fe10:7fe2 DNS Lookup Test
https://ipv6.mauriceland.nl YES YES 2026-04-28 10:25:47 2a03:3b00:1:0:700a:b7ff:fe10:3297 DNS Lookup Test
https://ipv6.solvoscenti.nl YES YES 2026-04-28 10:24:56 2a03:3b00:1:0:700a:b7ff:fe10:4241 DNS Lookup Test
https://ipv6.joopdebruin.nl YES YES 2026-04-28 10:24:51 2a03:3b00:1:0:700a:b7ff:fe10:7fe2 DNS Lookup Test
https://ipv6.l3nn.nl YES YES 2026-04-28 10:24:03 2a03:3b00:1:0:700a:b7ff:fe10:20ec DNS Lookup Test
https://ipv6.hey-bv.nl YES YES 2026-04-28 10:21:56 2a03:3b00:1:0:700a:b7ff:fe10:4b0f DNS Lookup Test
https://ipv6.k-v-a.nl YES YES 2026-04-28 10:21:37 2a03:3b00:1:0:700a:b7ff:fe10:20ec DNS Lookup Test
https://ipv6.hersteljefundering.nl YES YES 2026-04-28 10:21:05 2a03:3b00:1:0:700a:b7ff:fe10:5fbb DNS Lookup Test
https://ipv6.klijnbouweninfra.nl YES YES 2026-04-28 10:19:01 2a03:3b00:1:0:700a:b7ff:fe10:20ec DNS Lookup Test
https://ipv6.hervormdoudalblas.nl YES YES 2026-04-28 10:18:57 2a03:3b00:1:0:700a:b7ff:fe10:5fbb DNS Lookup Test
https://ipv6.kinderenvanamurang.nl YES YES 2026-04-28 10:17:31 2a03:3b00:1:0:700a:b7ff:fe10:20ec DNS Lookup Test
https://ipv6.groen-id.nl YES YES 2026-04-28 10:16:54 2a03:3b00:1:0:700a:b7ff:fe10:6c75 DNS Lookup Test
https://ipv6.langlevedeliefde.nl YES YES 2026-04-28 10:14:11 2a03:3b00:1:0:700a:b7ff:fe10:4241 DNS Lookup Test
https://ipv6.jannekesindram.nl YES YES 2026-04-28 10:12:41 2a03:3b00:1:0:700a:b7ff:fe10:4241 DNS Lookup Test
https://ipv6.healingz.nl YES YES 2026-04-28 10:12:17 2a03:3b00:1:0:700a:b7ff:fe10:4279 DNS Lookup Test
https://ipv6.hetlaatstekaartje.nl YES YES 2026-04-28 10:12:09 2a03:3b00:1:0:700a:b7ff:fe10:7fe2 DNS Lookup Test
https://ipv6.jellema-trading.nl YES YES 2026-04-28 10:11:53 2a03:3b00:1:0:700a:b7ff:fe10:4241 DNS Lookup Test
https://ipv6.hostwebsites.nl YES YES 2026-04-28 10:11:40 2a03:3b00:1:0:700a:b7ff:fe10:6750 DNS Lookup Test
https://ipv6.jhomburgonderhoud.nl YES YES 2026-04-28 10:11:35 2a03:3b00:1:0:700a:b7ff:fe10:1cdf DNS Lookup Test
https://ipv6.hrclimate.nl YES YES 2026-04-28 10:10:21 2a03:3b00:1:0:700a:b7ff:fe10:4279 DNS Lookup Test
https://ipv6.emotiewijs.nl YES YES 2026-04-28 10:09:44 2a03:3b00:1:0:700a:b7ff:fe10:4b0f DNS Lookup Test
https://ipv6.jverschuren.nl YES YES 2026-04-28 10:09:42 2a03:3b00:1:0:700a:b7ff:fe10:3297 DNS Lookup Test
https://ipv6.hygieneservicenederland.nl YES YES 2026-04-28 10:08:41 2a03:3b00:1:0:700a:b7ff:fe10:4429 DNS Lookup Test
https://ipv6.plantenmedicijn.nl YES YES 2026-04-28 10:08:35 2a03:3b00:1:0:700a:b7ff:fe10:20ec DNS Lookup Test
https://ipv6.halloweenimprove.nl YES YES 2026-04-28 10:08:32 2a03:3b00:1:0:700a:b7ff:fe10:7fe2 DNS Lookup Test
https://ipv6.garage-riro.nl YES YES 2026-04-28 10:08:30 2a03:3b00:1:0:700a:b7ff:fe10:5fbb DNS Lookup Test
https://ipv6.incoma.nl YES YES 2026-04-28 10:07:53 2a03:3b00:1:0:700a:b7ff:fe10:1cdf DNS Lookup Test
https://ipv6.innomarcawebsite.nl YES YES 2026-04-28 10:07:00 2a03:3b00:1:0:700a:b7ff:fe10:20ec DNS Lookup Test
https://ipv6.fourniturenshop.nl YES YES 2026-04-28 10:06:34 2a03:3b00:1:0:700a:b7ff:fe10:5fbb DNS Lookup Test
https://ipv6.gdebruijntransport.nl YES YES 2026-04-28 10:04:52 2a03:3b00:1:0:700a:b7ff:fe10:4279 DNS Lookup Test
https://ipv6.e-truckservice.nl YES YES 2026-04-28 10:04:06 2a03:3b00:1:0:700a:b7ff:fe10:6c75 DNS Lookup Test
https://ipv6.floorheating.nl YES YES 2026-04-28 10:02:23 2a03:3b00:1:0:700a:b7ff:fe10:5fbb DNS Lookup Test
https://ipv6.henaharlingen.nl YES YES 2026-04-28 10:01:55 2a03:3b00:1:0:700a:b7ff:fe10:4241 DNS Lookup Test
https://ipv6.goedkopeolijfbomen.nl YES YES 2026-04-28 10:00:48 2a03:3b00:1:0:700a:b7ff:fe10:7fe2 DNS Lookup Test
https://ipv6.genuine.nl YES YES 2026-04-28 10:00:01 2a03:3b00:1:0:700a:b7ff:fe10:3e6c DNS Lookup Test
https://ipv6.genepool.nl YES YES 2026-04-28 09:59:42 2a03:3b00:1:0:700a:b7ff:fe10:4279 DNS Lookup Test
https://ipv6.harbourhub.nl YES YES 2026-04-28 09:58:08 2a03:3b00:1:0:700a:b7ff:fe10:1cdf DNS Lookup Test
https://ipv6.liquidsolutions.nl YES YES 2026-04-28 09:56:14 2a03:3b00:1:0:700a:b7ff:fe10:75d9 DNS Lookup Test
https://ipv6.funnystore.nl YES YES 2026-04-28 09:56:13 2a03:3b00:1:0:700a:b7ff:fe10:7d00 DNS Lookup Test
https://ipv6.guideprojects.nl YES YES 2026-04-28 09:55:30 2a03:3b00:1:0:700a:b7ff:fe10:1cdf DNS Lookup Test
https://ipv6.kerimafotografie.nl YES YES 2026-04-28 09:55:05 2a03:3b00:1:0:700a:b7ff:fe10:75d9 DNS Lookup Test
https://ipv6.eenkritischevriend.nl YES YES 2026-04-28 09:54:51 2a03:3b00:1:0:700a:b7ff:fe10:5fbb DNS Lookup Test
https://ipv6.ifsav.nl YES YES 2026-04-28 09:52:42 2a03:3b00:1:0:700a:b7ff:fe10:75d9 DNS Lookup Test
https://ipv6.ecoacheswaddinxveen.nl YES YES 2026-04-28 09:52:38 2a03:3b00:1:0:700a:b7ff:fe10:5fbb DNS Lookup Test
https://ipv6.fijneleiders.nl YES YES 2026-04-28 09:51:43 2a03:3b00:1:0:700a:b7ff:fe10:6750 DNS Lookup Test
https://ipv6.drukgereed.nl YES YES 2026-04-28 09:50:48 2a03:3b00:1:0:700a:b7ff:fe10:5fbb DNS Lookup Test
https://ipv6.drenthetech.nl YES YES 2026-04-28 09:50:45 2a03:3b00:1:0:700a:b7ff:fe10:5fbb DNS Lookup Test
https://ipv6.leirissalab.nl YES YES 2026-04-28 09:49:22 2a03:3b00:1:0:700a:b7ff:fe10:7d00 DNS Lookup Test
https://ipv6.dignis.nl YES YES 2026-04-28 09:48:55 2a03:3b00:1:0:700a:b7ff:fe10:5fbb DNS Lookup Test
https://ipv6.elkouch.nl YES YES 2026-04-28 09:48:55 2a03:3b00:1:0:700a:b7ff:fe10:4279 DNS Lookup Test
https://ipv6.dwconcepts.nl YES YES 2026-04-28 09:48:46 2a03:3b00:1:0:700a:b7ff:fe10:4279 DNS Lookup Test
https://ipv6.eta.nl YES YES 2026-04-28 09:48:02 2a03:3b00:1:0:700a:b7ff:fe10:6750 DNS Lookup Test
https://ipv6.ecomboost.nl YES YES 2026-04-28 09:47:41 2a03:3b00:1:0:700a:b7ff:fe10:4279 DNS Lookup Test
https://ipv6.espadel.nl YES YES 2026-04-28 09:47:37 2a03:3b00:1:0:700a:b7ff:fe10:7fe2 DNS Lookup Test
https://ipv6.fotoopdekbed.nl YES YES 2026-04-28 09:46:36 2a03:3b00:1:0:700a:b7ff:fe10:75d9 DNS Lookup Test
https://ipv6.cminderhoud.nl YES YES 2026-04-28 09:46:35 2a03:3b00:1:0:700a:b7ff:fe10:4b0f DNS Lookup Test
https://ipv6.easybon.nl YES YES 2026-04-28 09:44:51 2a03:3b00:1:0:700a:b7ff:fe10:1cdf DNS Lookup Test
https://ipv6.claudrose-zorgt.nl YES YES 2026-04-28 09:44:13 2a03:3b00:1:0:700a:b7ff:fe10:4b0f DNS Lookup Test
https://ipv6.drphosting2.nl YES YES 2026-04-28 09:44:06 2a03:3b00:1:0:700a:b7ff:fe10:6750 DNS Lookup Test
https://ipv6.dansplaatswesseling.nl YES YES 2026-04-28 09:43:42 2a03:3b00:1:0:700a:b7ff:fe10:5fbb DNS Lookup Test
https://ipv6.erikwerner.nl YES YES 2026-04-28 09:43:03 2a03:3b00:1:0:700a:b7ff:fe10:7d00 DNS Lookup Test
https://ipv6.fampersoon.nl YES YES 2026-04-28 09:42:40 2a03:3b00:1:0:700a:b7ff:fe10:75d9 DNS Lookup Test
https://ipv6.czds.nl YES YES 2026-04-28 09:42:35 2a03:3b00:1:0:700a:b7ff:fe10:5fbb DNS Lookup Test
https://ipv6.drphosting3.nl YES YES 2026-04-28 09:42:19 2a03:3b00:1:0:700a:b7ff:fe10:6750 DNS Lookup Test
https://ipv6.elenbiya.nl YES YES 2026-04-28 09:42:04 2a03:3b00:1:0:700a:b7ff:fe10:20ec DNS Lookup Test
https://ipv6.e-yachts.nl YES YES 2026-04-28 09:41:48 2a03:3b00:1:0:700a:b7ff:fe10:75d9 DNS Lookup Test
https://ipv6.fahnerbouwsupport.nl YES YES 2026-04-28 09:41:39 2a03:3b00:1:0:700a:b7ff:fe10:3297 DNS Lookup Test
https://ipv6.eeuwigonderweg.nl YES YES 2026-04-28 09:41:11 2a03:3b00:1:0:700a:b7ff:fe10:4429 DNS Lookup Test
https://ipv6.ee-horeca.nl YES YES 2026-04-28 09:40:58 2a03:3b00:1:0:700a:b7ff:fe10:4429 DNS Lookup Test
https://ipv6.ceskysight.nl YES YES 2026-04-28 09:40:06 2a03:3b00:1:0:700a:b7ff:fe10:4b0f DNS Lookup Test
https://ipv6.druppelmedia.nl YES YES 2026-04-28 09:39:19 2a03:3b00:1:0:700a:b7ff:fe10:20ec DNS Lookup Test
https://ipv6.dianascheer.nl YES YES 2026-04-28 09:37:21 2a03:3b00:1:0:700a:b7ff:fe10:6750 DNS Lookup Test
https://ipv6.dicb.nl YES YES 2026-04-28 09:37:09 2a03:3b00:1:0:700a:b7ff:fe10:6750 DNS Lookup Test
https://ipv6.dilenafashion.nl YES YES 2026-04-28 09:36:03 2a03:3b00:1:0:700a:b7ff:fe10:7fe2 DNS Lookup Test
https://ipv6.devettebot.nl YES YES 2026-04-28 09:36:03 2a03:3b00:1:0:700a:b7ff:fe10:20ec DNS Lookup Test
https://ipv6.delingepaprika.nl YES YES 2026-04-28 09:35:59 2a03:3b00:1:0:700a:b7ff:fe10:1cdf DNS Lookup Test
https://ipv6.dezevenzaken.nl YES YES 2026-04-28 09:33:47 2a03:3b00:1:0:700a:b7ff:fe10:7fe2 DNS Lookup Test
https://ipv6.daironglobal.nl YES YES 2026-04-28 09:33:46 2a03:3b00:1:0:700a:b7ff:fe10:7d00 DNS Lookup Test
https://ipv6.dammersclassics.nl YES YES 2026-04-28 09:31:48 2a03:3b00:1:0:700a:b7ff:fe10:20ec DNS Lookup Test
https://ipv6.cleffr.nl YES YES 2026-04-28 09:28:50 2a03:3b00:1:0:700a:b7ff:fe10:1cdf DNS Lookup Test
https://ipv6.dannynauta.nl YES YES 2026-04-28 09:28:36 2a03:3b00:1:0:700a:b7ff:fe10:6750 DNS Lookup Test
https://ipv6.ceesvoordekeuken.nl YES YES 2026-04-28 09:28:01 2a03:3b00:1:0:700a:b7ff:fe10:75d9 DNS Lookup Test
https://ipv6.brandsonworks.nl YES YES 2026-04-28 09:27:44 2a03:3b00:1:0:700a:b7ff:fe10:5fbb DNS Lookup Test
https://ipv6.core-culture.nl YES YES 2026-04-28 09:27:44 2a03:3b00:1:0:700a:b7ff:fe10:7d00 DNS Lookup Test
https://ipv6.boltconnect.nl YES YES 2026-04-28 09:26:02 2a03:3b00:1:0:700a:b7ff:fe10:5fbb DNS Lookup Test
https://ipv6.bouwzorggrunn.nl YES YES 2026-04-28 09:24:47 2a03:3b00:1:0:700a:b7ff:fe10:20ec DNS Lookup Test
https://ipv6.carpacciofabriek.nl YES YES 2026-04-28 09:23:02 2a03:3b00:1:0:700a:b7ff:fe10:4429 DNS Lookup Test
https://ipv6.carlabreedveld.nl YES YES 2026-04-28 09:21:53 2a03:3b00:1:0:700a:b7ff:fe10:4429 DNS Lookup Test
https://ipv6.brandweb-develop.nl YES YES 2026-04-28 09:21:34 2a03:3b00:1:0:700a:b7ff:fe10:7d00 DNS Lookup Test
https://ipv6.brandnewfever.nl YES YES 2026-04-28 09:20:06 2a03:3b00:1:0:700a:b7ff:fe10:6c75 DNS Lookup Test
https://ipv6.betaalbaretaarten.nl YES YES 2026-04-28 09:19:08 2a03:3b00:1:0:700a:b7ff:fe10:4279 DNS Lookup Test
https://ipv6.bestuurvosseven.nl YES YES 2026-04-28 09:19:05 2a03:3b00:1:0:700a:b7ff:fe10:4279 DNS Lookup Test
https://ipv6.bojaschuurman.nl YES YES 2026-04-28 09:18:35 2a03:3b00:1:0:700a:b7ff:fe10:1cdf DNS Lookup Test
https://ipv6.box0517.nl YES YES 2026-04-28 09:17:20 2a03:3b00:1:0:700a:b7ff:fe10:7fe2 DNS Lookup Test
https://ipv6.baken5risico.nl YES YES 2026-04-28 09:16:49 2a03:3b00:1:0:700a:b7ff:fe10:20ec DNS Lookup Test
https://ipv6.beurskens-schoenmode.nl YES YES 2026-04-28 09:15:50 2a03:3b00:1:0:700a:b7ff:fe10:6c75 DNS Lookup Test
https://ipv6.amvdveen.nl YES YES 2026-04-28 09:15:01 2a03:3b00:1:0:700a:b7ff:fe10:4b0f DNS Lookup Test
https://ipv6.buitengewoon-ludema.nl YES YES 2026-04-28 09:13:21 2a03:3b00:1:0:700a:b7ff:fe10:4241 DNS Lookup Test
https://ipv6.akdeniz.nl YES YES 2026-04-28 09:12:55 2a03:3b00:1:0:700a:b7ff:fe10:5fbb DNS Lookup Test
https://ipv6.bienfondsbv.nl YES YES 2026-04-28 09:11:29 2a03:3b00:1:0:700a:b7ff:fe10:7fe2 DNS Lookup Test
https://ipv6.agricosoft.nl YES YES 2026-04-28 09:10:52 2a03:3b00:1:0:700a:b7ff:fe10:4b0f DNS Lookup Test
https://ipv6.audit-innovators.nl YES YES 2026-04-28 09:10:05 2a03:3b00:1:0:700a:b7ff:fe10:75d9 DNS Lookup Test
https://ipv6.arya.nl YES YES 2026-04-28 09:09:52 2a03:3b00:1:0:700a:b7ff:fe10:20ec DNS Lookup Test
https://ipv6.architectthijs.nl YES YES 2026-04-28 09:09:08 2a03:3b00:1:0:700a:b7ff:fe10:1cdf DNS Lookup Test
https://ipv6.aensbeheer.nl YES YES 2026-04-28 09:07:11 2a03:3b00:1:0:700a:b7ff:fe10:1cdf DNS Lookup Test
https://ipv6.altijd-groen.nl YES YES 2026-04-28 09:07:04 2a03:3b00:1:0:700a:b7ff:fe10:20ec DNS Lookup Test
https://ipv6.advocaatinutrecht.nl YES YES 2026-04-28 09:06:41 2a03:3b00:1:0:700a:b7ff:fe10:4279 DNS Lookup Test
https://ipv6.allinntegelwerken.nl YES YES 2026-04-28 09:05:00 2a03:3b00:1:0:700a:b7ff:fe10:20ec DNS Lookup Test
https://ipv6.ambientebouw.nl YES YES 2026-04-28 09:04:39 2a03:3b00:1:0:700a:b7ff:fe10:6750 DNS Lookup Test
https://ipv6.alettajacobsnoordnederland.nl YES YES 2026-04-28 09:04:38 2a03:3b00:1:0:700a:b7ff:fe10:7d00 DNS Lookup Test
https://ipv6.anstretchtent.nl YES YES 2026-04-28 09:02:12 2a03:3b00:1:0:700a:b7ff:fe10:4241 DNS Lookup Test
https://ipv6.alieloos.nl YES YES 2026-04-28 09:02:11 2a03:3b00:1:0:700a:b7ff:fe10:6750 DNS Lookup Test
https://ipv6.actieweek.nl YES YES 2026-04-28 09:01:06 2a03:3b00:1:0:700a:b7ff:fe10:3e6c DNS Lookup Test
https://ipv6.aa22.nl YES YES 2026-04-28 08:58:25 2a03:3b00:1:0:700a:b7ff:fe10:3297 DNS Lookup Test
https://ipv6.ademaminnertsga.nl YES YES 2026-04-28 07:09:36 2a03:3b00:1:0:700a:b7ff:fe10:3b2f DNS Lookup Test
https://ipv6.hobouma.nl YES YES 2026-04-28 06:55:17 2a03:3b00:1:0:700a:b7ff:fe10:4429 DNS Lookup Test
https://ipv6.mwtloodgieteralmere.nl YES YES 2026-04-28 05:02:38 2a03:3b00:1:0:700a:b7ff:fe10:4b0f DNS Lookup Test
https://ipv6.mwtloodgieterhoorn.nl YES YES 2026-04-28 05:01:01 2a03:3b00:1:0:700a:b7ff:fe10:1286 DNS Lookup Test
https://ipv6.mwtloodgieterhilversum.nl YES YES 2026-04-28 04:58:19 2a03:3b00:1:0:700a:b7ff:fe10:1cdf DNS Lookup Test
https://ipv6.mwtloodgieterutrecht.nl YES YES 2026-04-28 04:56:39 2a03:3b00:1:0:700a:b7ff:fe10:7d00 DNS Lookup Test
https://ipv6.mwtloodgieterzeewolde.nl YES YES 2026-04-28 04:53:01 2a03:3b00:1:0:700a:b7ff:fe10:6750 DNS Lookup Test
https://ipv6.jerryvanleeuwen.nl YES YES 2026-04-27 10:33:24 2a12:5040:1:303:be24:11ff:fedb:3f34 DNS Lookup Test
https://ipv6.mennobernardt.nl YES YES 2026-04-25 18:31:43 2a03:3b00:1:0:700a:b7ff:fe10:4b0f DNS Lookup Test
https://ipv6.tsveenstra.nl YES YES 2026-04-25 18:29:51 2a03:3b00:1:0:700a:b7ff:fe10:1cdf DNS Lookup Test
https://ipv6.stichtingklik.nl YES YES 2026-04-24 11:51:04 2a12:5040:1:303:be24:11ff:fec9:9165 DNS Lookup Test
https://ipv6.dspbeesel.nl YES YES 2026-04-24 01:36:38 2a03:3b00:1:0:700a:b7ff:fe10:4429 DNS Lookup Test
https://ipv6.brabantseoldtimerdag.nl YES YES 2026-04-23 14:27:43 2a12:5040:1:303:ac24:e6ff:fe35:e70b DNS Lookup Test
https://ipv6.mourikcloud.nl YES YES 2026-04-23 08:35:32 2a12:5040:1:303:385d:deff:fe38:9268 DNS Lookup Test
https://ipv6.lecoqadministratie.nl YES YES 2026-04-23 06:29:33 2a03:3b00:1:0:700a:b7ff:fe10:29d5 DNS Lookup Test
https://ipv6.rioolontstopperhouten.nl YES YES 2026-04-22 15:10:37 2a03:3b00:1:0:700a:b7ff:fe10:1cdf DNS Lookup Test
https://ipv6.rioolontstopperhaarlem.nl YES YES 2026-04-22 15:08:40 2a03:3b00:1:0:700a:b7ff:fe10:29d5 DNS Lookup Test
https://ipv6.orthopedische-hondenmand.nl YES YES 2026-04-22 14:48:56 2a03:3b00:1:0:700a:b7ff:fe10:5beb DNS Lookup Test
https://ipv6.buro-ensamble.nl YES YES 2026-04-22 14:24:14 2a03:3b00:1:0:700a:b7ff:fe10:7d00 DNS Lookup Test
https://ipv6.heerlijkheuvelland.nl YES YES 2026-04-22 14:02:02 2a03:3b00:1:0:700a:b7ff:fe10:5beb DNS Lookup Test
https://ipv6.hsvdeheisnutters.nl YES YES 2026-04-22 13:36:15 2a03:3b00:1:0:700a:b7ff:fe10:1cdf DNS Lookup Test
https://ipv6.laformepilates.nl YES YES 2026-04-22 13:23:39 2a03:3b00:1:0:700a:b7ff:fe10:4b0f DNS Lookup Test
https://ipv6.alandoorson.nl YES YES 2026-04-22 12:48:55 2a03:3b00:1:0:700a:b7ff:fe10:5beb DNS Lookup Test
https://ipv6.urbanmotors.nl YES YES 2026-04-22 12:36:36 2a03:3b00:1:0:700a:b7ff:fe10:73cc DNS Lookup Test
https://ipv6.struman.nl YES YES 2026-04-22 12:33:13 2a03:3b00:1:0:700a:b7ff:fe10:6750 DNS Lookup Test
https://ipv6.centenboek.nl YES YES 2026-04-22 12:31:07 2a03:3b00:1:0:700a:b7ff:fe10:6c75 DNS Lookup Test
https://ipv6.rioolontstoppergeldermalsen.nl YES YES 2026-04-22 11:57:36 2a03:3b00:1:0:700a:b7ff:fe10:737a DNS Lookup Test
https://ipv6.stichtingwvg.nl YES YES 2026-04-22 11:56:35 2a03:3b00:1:0:700a:b7ff:fe10:20ec DNS Lookup Test
https://ipv6.boxva.nl YES YES 2026-04-22 11:52:22 2a03:3b00:1:0:700a:b7ff:fe10:5910 DNS Lookup Test
https://ipv6.tgklussenbedrijf.nl YES YES 2026-04-22 11:32:44 2a03:3b00:1:0:700a:b7ff:fe10:5beb DNS Lookup Test
https://ipv6.vdermeer.nl YES YES 2026-04-22 11:25:44 2a03:3b00:1:0:700a:b7ff:fe10:737a DNS Lookup Test
https://ipv6.iskarbv.nl YES YES 2026-04-22 11:22:05 2a03:3b00:1:0:700a:b7ff:fe10:3e6c DNS Lookup Test
https://ipv6.vita55.nl YES YES 2026-04-22 11:10:48 2a03:3b00:1:0:700a:b7ff:fe10:6c75 DNS Lookup Test
https://ipv6.mercedesspecialistgouda.nl YES YES 2026-04-22 10:34:24 2a03:3b00:1:0:700a:b7ff:fe10:4279 DNS Lookup Test
https://ipv6.webistar.nl YES YES 2026-04-22 10:25:40 2a03:3b00:1:0:700a:b7ff:fe10:737a DNS Lookup Test
https://ipv6.tvsafbouwenonderhoud.nl YES YES 2026-04-22 10:19:20 2a03:3b00:1:0:700a:b7ff:fe10:737a DNS Lookup Test
https://ipv6.stijlvol-stoer.nl YES YES 2026-04-22 10:12:46 2a03:3b00:1:0:700a:b7ff:fe10:737a DNS Lookup Test
https://ipv6.lucio-services.nl YES YES 2026-04-22 09:59:43 2a03:3b00:1:0:700a:b7ff:fe10:4279 DNS Lookup Test
https://ipv6.cafethoekpandje.nl YES YES 2026-04-22 09:57:00 2a12:5040:1:302:58b5:25ff:fe2b:4e35 DNS Lookup Test
https://ipv6.s100shop.nl YES YES 2026-04-22 09:44:45 2a03:3b00:1:0:700a:b7ff:fe10:1286 DNS Lookup Test
https://ipv6.zorgpuntbennekom.nl YES YES 2026-04-22 09:21:22 2a04:3544:1000:1510:3cc8:64ff:fefa:31e3 DNS Lookup Test
https://ipv6.omnishosting.nl YES YES 2026-04-22 09:02:56 2a03:3b00:1:0:700a:b7ff:fe10:737a DNS Lookup Test
https://ipv6.ncvanlent.nl YES YES 2026-04-22 08:59:29 2a03:3b00:1:0:700a:b7ff:fe10:737a DNS Lookup Test
https://ipv6.echecker.nl YES YES 2026-04-22 08:59:26 2a03:3b00:1:0:700a:b7ff:fe10:6750 DNS Lookup Test
https://ipv6.capitalbv.nl YES YES 2026-04-22 08:51:48 2a03:3b00:1:0:700a:b7ff:fe10:73cc DNS Lookup Test
https://ipv6.vanderbouw.nl YES YES 2026-04-22 08:49:50 2a03:3b00:1:0:700a:b7ff:fe10:73cc DNS Lookup Test
https://ipv6.profivision.nl YES YES 2026-04-22 08:47:48 2a03:3b00:1:0:700a:b7ff:fe10:6c75 DNS Lookup Test
https://ipv6.hetbewindutrecht.nl YES YES 2026-04-22 08:43:19 2a03:3b00:1:0:700a:b7ff:fe10:4429 DNS Lookup Test
https://ipv6.bluefishtale.nl YES YES 2026-04-22 08:42:23 2a03:3b00:1:0:700a:b7ff:fe10:3ba8 DNS Lookup Test
https://ipv6.ontwikkelingsgerichtonderwijs.nl YES YES 2026-04-22 08:42:08 2a03:3b00:1:0:700a:b7ff:fe10:4429 DNS Lookup Test
https://ipv6.ergoborstel.nl YES YES 2026-04-22 08:33:50 2a03:3b00:1:0:700a:b7ff:fe10:1cdf DNS Lookup Test
https://ipv6.meikedeen.nl YES YES 2026-04-22 08:33:47 2a03:3b00:1:0:700a:b7ff:fe10:5beb DNS Lookup Test
https://ipv6.flatboy.nl YES YES 2026-04-22 08:25:45 2a03:3b00:1:0:700a:b7ff:fe10:1286 DNS Lookup Test
https://ipv6.bik-accountancy.nl YES YES 2026-04-22 08:21:12 2a03:3b00:1:0:700a:b7ff:fe10:737a DNS Lookup Test
https://ipv6.lambda-projects.nl YES YES 2026-04-22 08:21:12 2a03:3b00:1:0:700a:b7ff:fe10:737a DNS Lookup Test
https://ipv6.keesvhelden.nl YES YES 2026-04-22 08:21:12 2a03:3b00:1:0:700a:b7ff:fe10:5beb DNS Lookup Test
https://ipv6.beneluxbv.nl YES YES 2026-04-22 08:06:42 2a03:3b00:1:0:700a:b7ff:fe10:737a DNS Lookup Test
https://ipv6.at-kims.nl YES YES 2026-04-22 07:55:50 2a03:3b00:1:0:700a:b7ff:fe10:737a DNS Lookup Test
https://ipv6.wentholtvastgoed.nl YES YES 2026-04-22 07:54:27 2a03:3b00:1:0:700a:b7ff:fe10:75d9 DNS Lookup Test
https://ipv6.bovenkamerperspectief.nl YES YES 2026-04-22 07:54:11 2a03:3b00:1:0:700a:b7ff:fe10:6c75 DNS Lookup Test
https://ipv6.herdenkingduindorp.nl YES YES 2026-04-22 07:50:58 2a03:3b00:1:0:700a:b7ff:fe10:20ec DNS Lookup Test
https://ipv6.websitehero.nl YES YES 2026-04-22 07:41:33 2a12:5040:1:303:be24:11ff:fee7:847 DNS Lookup Test
https://ipv6.gb058.nl YES YES 2026-04-22 07:40:45 2a03:3b00:1:0:700a:b7ff:fe10:4b0f DNS Lookup Test
https://ipv6.mtcservices.nl YES YES 2026-04-22 07:37:26 2a12:5040:1:303:8c01:f1ff:fe77:caab DNS Lookup Test
https://ipv6.duenorth.nl YES YES 2026-04-22 07:36:09 2a03:3b00:1:0:700a:b7ff:fe10:4279 DNS Lookup Test
https://ipv6.kleinmoedigdakwerken.nl YES YES 2026-04-22 07:32:59 2a03:3b00:1:0:700a:b7ff:fe10:4516 DNS Lookup Test
https://ipv6.havenvoorelkaar.nl YES YES 2026-04-22 07:32:42 2a03:3b00:1:0:700a:b7ff:fe10:1cdf DNS Lookup Test
https://ipv6.floow2connect.nl YES YES 2026-04-22 06:39:14 2a03:3b00:1:0:700a:b7ff:fe10:5910 DNS Lookup Test
https://ipv6.klachtenbureau.nl YES YES 2026-04-22 06:32:33 2a03:3b00:1:0:700a:b7ff:fe10:4429 DNS Lookup Test
https://ipv6.danielgruppen.nl YES YES 2026-04-22 06:26:25 2a12:5040:1:303:be24:11ff:fefc:5109 DNS Lookup Test
https://ipv6.jsfyachtbuilders.nl YES YES 2026-04-22 06:20:42 2a03:3b00:1:0:700a:b7ff:fe10:737a DNS Lookup Test
https://ipv6.careschilderwerk.nl YES YES 2026-04-22 06:17:03 2a03:3b00:1:0:700a:b7ff:fe10:5beb DNS Lookup Test
https://ipv6.blauwdrukmarketing.nl YES YES 2026-04-22 06:16:35 2a03:3b00:1:0:700a:b7ff:fe10:5beb DNS Lookup Test
https://ipv6.agrowolters.nl YES YES 2026-04-22 06:09:27 2a03:3b00:1:0:700a:b7ff:fe10:5beb DNS Lookup Test
https://ipv6.winkeltjeweert.nl YES YES 2026-04-22 06:03:47 2a03:3b00:1:0:700a:b7ff:fe10:7d00 DNS Lookup Test
https://ipv6.saentoren.nl YES YES 2026-04-22 06:00:53 2a03:3b00:1:0:700a:b7ff:fe10:3ba8 DNS Lookup Test
https://ipv6.provisieberekenen.nl YES YES 2026-04-22 05:46:18 2a03:3b00:1:0:700a:b7ff:fe10:1cdf DNS Lookup Test
https://ipv6.goedgeholpenworden.nl YES YES 2026-04-22 05:43:07 2a03:3b00:1:0:700a:b7ff:fe10:737a DNS Lookup Test
https://ipv6.feenstrafamilierecht.nl YES YES 2026-04-22 05:42:09 2a03:3b00:1:0:700a:b7ff:fe10:4279 DNS Lookup Test
https://ipv6.brucamontage.nl YES YES 2026-04-22 05:37:34 2a03:3b00:1:0:700a:b7ff:fe10:3ba8 DNS Lookup Test
https://ipv6.ecohaarverzorging.nl YES YES 2026-04-22 05:23:53 2a03:3b00:1:0:700a:b7ff:fe10:4279 DNS Lookup Test
https://ipv6.zorgsites.nl YES YES 2026-04-22 05:21:54 2a03:3b00:1:0:700a:b7ff:fe10:7d00 DNS Lookup Test
https://ipv6.pt-creations.nl YES YES 2026-04-22 05:06:27 2a03:3b00:1:0:700a:b7ff:fe10:7d00 DNS Lookup Test
https://ipv6.tulipgardenexperience.nl YES YES 2026-04-22 05:03:29 2a03:3b00:1:0:700a:b7ff:fe10:5beb DNS Lookup Test
https://ipv6.lakesideventures.nl YES YES 2026-04-22 05:00:45 2a03:3b00:1:0:700a:b7ff:fe10:4429 DNS Lookup Test
https://ipv6.gregsfitstudio.nl YES YES 2026-04-22 04:58:59 2a12:5040:1:302:6068:aeff:fe25:926 DNS Lookup Test
https://ipv6.digistudio.nl YES YES 2026-04-22 04:52:19 2a03:3b00:1:0:700a:b7ff:fe10:6750 DNS Lookup Test
https://ipv6.puurmetmichelle.nl YES YES 2026-04-22 04:48:05 2a03:3b00:1:0:700a:b7ff:fe10:4279 DNS Lookup Test
https://ipv6.pixelwebdesign.nl YES YES 2026-04-22 04:42:27 2a03:3b00:1:0:700a:b7ff:fe10:1286 DNS Lookup Test
https://ipv6.rioolontstoppergorinchem.nl YES YES 2026-04-22 04:38:51 2a03:3b00:1:0:700a:b7ff:fe10:3ee9 DNS Lookup Test
https://ipv6.luchtmobiel.nl YES YES 2026-04-22 04:38:48 2a03:3b00:1:0:700a:b7ff:fe10:1286 DNS Lookup Test
https://ipv6.hendriksendoetinchem.nl YES YES 2026-04-22 04:34:00 2a03:3b00:1:0:700a:b7ff:fe10:1286 DNS Lookup Test
https://ipv6.venlosupport.nl YES YES 2026-04-22 04:33:56 2a03:3b00:1:0:700a:b7ff:fe10:4429 DNS Lookup Test
https://ipv6.kerkkompas.nl YES YES 2026-04-22 04:23:54 2a03:3b00:1:0:700a:b7ff:fe10:6c75 DNS Lookup Test
https://ipv6.schoolvoetbalderondevenen.nl YES YES 2026-04-22 04:00:04 2a03:3b00:1:0:700a:b7ff:fe10:737a DNS Lookup Test
https://ipv6.suri-fest.nl YES YES 2026-04-22 03:40:39 2a03:3b00:1:0:700a:b7ff:fe10:6c75 DNS Lookup Test
https://ipv6.powerbanx.nl YES YES 2026-04-22 03:24:27 2a03:3b00:1:0:700a:b7ff:fe10:3297 DNS Lookup Test
https://ipv6.glasserviceschipper.nl YES YES 2026-04-22 03:11:42 2a03:3b00:1:0:700a:b7ff:fe10:73cc DNS Lookup Test
https://ipv6.elsvanvoorne.nl YES YES 2026-04-22 03:08:59 2a03:3b00:1:0:700a:b7ff:fe10:1cdf DNS Lookup Test
https://ipv6.aienseo.nl YES YES 2026-04-22 03:08:58 2a03:3b00:1:0:700a:b7ff:fe10:1cdf DNS Lookup Test
https://ipv6.robandchristinainitaly.nl YES YES 2026-04-22 03:07:21 2a03:3b00:1:0:700a:b7ff:fe10:1cdf DNS Lookup Test
https://ipv6.valadis.nl YES YES 2026-04-22 03:03:16 2001:470:1f15:80c:216:3eff:feb5:a436 DNS Lookup Test
https://ipv6.grafischgeluk.nl YES YES 2026-04-22 02:53:23 2a03:3b00:1:0:700a:b7ff:fe10:4429 DNS Lookup Test
https://ipv6.pzvdekanaalstreek.nl YES YES 2026-04-22 02:39:47 2a03:3b00:1:0:700a:b7ff:fe10:5beb DNS Lookup Test
https://ipv6.bar-project.nl YES YES 2026-04-22 02:36:58 2a03:3b00:1:0:700a:b7ff:fe10:73cc DNS Lookup Test
https://ipv6.aminkhan.nl YES YES 2026-04-22 02:33:42 2a03:3b00:1:0:700a:b7ff:fe10:4279 DNS Lookup Test
https://ipv6.yiacupunctuur.nl YES YES 2026-04-22 02:32:39 2a03:3b00:1:0:700a:b7ff:fe10:1cdf DNS Lookup Test
https://ipv6.huisartsdezaanstroom.nl YES YES 2026-04-22 02:15:54 2a03:3b00:1:0:700a:b7ff:fe10:1286 DNS Lookup Test
https://ipv6.dijkhuizen-vloeren.nl YES YES 2026-04-22 02:11:23 2a03:3b00:1:0:700a:b7ff:fe10:4429 DNS Lookup Test
https://ipv6.famkeschoeman.nl YES YES 2026-04-22 02:07:12 2a03:3b00:1:0:700a:b7ff:fe10:4429 DNS Lookup Test
https://ipv6.wedohospitality.nl YES YES 2026-04-22 02:06:12 2a03:3b00:1:0:700a:b7ff:fe10:5beb DNS Lookup Test
https://ipv6.saeb1.nl YES YES 2026-04-22 02:04:47 2a03:3b00:1:0:700a:b7ff:fe10:4429 DNS Lookup Test
https://ipv6.vantolinstallatiebedrijf.nl YES YES 2026-04-22 01:58:39 2a03:3b00:1:0:700a:b7ff:fe10:1cdf DNS Lookup Test
https://ipv6.velunevirtualsupport.nl YES YES 2026-04-22 01:25:04 2a03:3b00:1:0:700a:b7ff:fe10:4279 DNS Lookup Test
https://ipv6.yourhomewallet.nl YES YES 2026-04-22 01:16:16 2a03:3b00:1:0:700a:b7ff:fe10:5beb DNS Lookup Test
https://ipv6.vanhollandrecruit.nl YES YES 2026-04-22 01:16:08 2a03:3b00:1:0:700a:b7ff:fe10:5beb DNS Lookup Test
https://ipv6.voortgang-website.nl YES YES 2026-04-22 01:15:38 2a03:3b00:1:0:700a:b7ff:fe10:6722 DNS Lookup Test
https://ipv6.kernoverlegbeesel.nl YES YES 2026-04-22 01:14:28 2a03:3b00:1:0:700a:b7ff:fe10:5fbb DNS Lookup Test
https://ipv6.historischagrarischerfgoedfriesland.nl YES YES 2026-04-22 01:11:40 2a03:3b00:1:0:700a:b7ff:fe10:3ee9 DNS Lookup Test
https://ipv6.veltumsluitkool.nl YES YES 2026-04-22 01:08:55 2a03:3b00:1:0:700a:b7ff:fe10:6722 DNS Lookup Test
https://ipv6.wanacount.nl YES YES 2026-04-22 01:06:45 2a03:3b00:1:0:700a:b7ff:fe10:5beb DNS Lookup Test
https://ipv6.thebluebirds.nl YES YES 2026-04-22 01:02:12 2a03:3b00:1:0:700a:b7ff:fe10:6722 DNS Lookup Test
https://ipv6.rioolontstopperculemborg.nl YES YES 2026-04-22 00:52:59 2a03:3b00:1:0:700a:b7ff:fe10:5910 DNS Lookup Test
https://ipv6.rioolontstoppernieuwegein.nl YES YES 2026-04-22 00:52:31 2a03:3b00:1:0:700a:b7ff:fe10:1cdf DNS Lookup Test
https://ipv6.jobwaypersoneelsdiensten.nl YES YES 2026-04-22 00:51:47 2a03:3b00:1:0:700a:b7ff:fe10:3ee9 DNS Lookup Test
https://ipv6.rioolontstopperleerdam.nl YES YES 2026-04-22 00:51:23 2a03:3b00:1:0:700a:b7ff:fe10:5beb DNS Lookup Test
https://ipv6.rioolontstoppervianen.nl YES YES 2026-04-22 00:50:54 2a03:3b00:1:0:700a:b7ff:fe10:29d5 DNS Lookup Test
https://ipv6.rioolontstopperbussum.nl YES YES 2026-04-22 00:50:51 2a03:3b00:1:0:700a:b7ff:fe10:73cc DNS Lookup Test
https://ipv6.rioolontstopperveenendaal.nl YES YES 2026-04-22 00:49:21 2a03:3b00:1:0:700a:b7ff:fe10:4241 DNS Lookup Test
https://ipv6.rioolontstopperbarneveld.nl YES YES 2026-04-22 00:49:14 2a03:3b00:1:0:700a:b7ff:fe10:4241 DNS Lookup Test
https://ipv6.sipati.nl YES YES 2026-04-22 00:44:15 2a03:3b00:1:0:700a:b7ff:fe10:5beb DNS Lookup Test
https://ipv6.fondse.nl YES YES 2026-04-22 00:41:41 2a03:3b00:1:0:700a:b7ff:fe10:20ec DNS Lookup Test
https://ipv6.pvdaveendam.nl YES YES 2026-04-22 00:38:24 2a03:3b00:1:0:700a:b7ff:fe10:5beb DNS Lookup Test
https://ipv6.pixelstudioworks.nl YES YES 2026-04-22 00:35:12 2a03:3b00:1:0:700a:b7ff:fe10:5beb DNS Lookup Test
https://ipv6.peter-helmus.nl YES YES 2026-04-22 00:34:02 2a03:3b00:1:0:700a:b7ff:fe10:5beb DNS Lookup Test
https://ipv6.constayners.nl YES YES 2026-04-22 00:31:51 2a03:3b00:1:0:700a:b7ff:fe10:75d9 DNS Lookup Test
https://ipv6.nobout.nl YES YES 2026-04-22 00:30:56 2a03:3b00:1:0:700a:b7ff:fe10:6722 DNS Lookup Test
https://ipv6.online-shops.nl YES YES 2026-04-22 00:29:29 2a03:3b00:1:0:700a:b7ff:fe10:5beb DNS Lookup Test
https://ipv6.nkdeuren.nl YES YES 2026-04-22 00:28:20 2a03:3b00:1:0:700a:b7ff:fe10:5beb DNS Lookup Test
https://ipv6.lasida.nl YES YES 2026-04-22 00:17:34 2a03:3b00:1:0:700a:b7ff:fe10:6722 DNS Lookup Test
https://ipv6.mandersbouwwerkzaamheden.nl YES YES 2026-04-22 00:16:56 2a03:3b00:1:0:700a:b7ff:fe10:5beb DNS Lookup Test
https://ipv6.briano-facilities.nl YES YES 2026-04-22 00:12:42 2a03:3b00:1:0:700a:b7ff:fe10:4516 DNS Lookup Test
https://ipv6.jaapiesagf.nl YES YES 2026-04-22 00:12:02 2a03:3b00:1:0:700a:b7ff:fe10:6722 DNS Lookup Test
https://ipv6.kindfulcoaching.nl YES YES 2026-04-22 00:10:08 2a03:3b00:1:0:700a:b7ff:fe10:5beb DNS Lookup Test
https://ipv6.pkfs.nl YES YES 2026-04-22 00:08:30 2a03:3b00:1:0:700a:b7ff:fe10:169f DNS Lookup Test
https://ipv6.v-mb.nl YES YES 2026-04-22 00:07:32 2a03:3b00:1:0:700a:b7ff:fe10:5500 DNS Lookup Test
https://ipv6.plenty4.nl YES YES 2026-04-21 23:59:31 2a03:3b00:1:0:700a:b7ff:fe10:29d5 DNS Lookup Test
https://ipv6.rioolontstoppermaarssen.nl YES YES 2026-04-21 23:57:53 2a03:3b00:1:0:700a:b7ff:fe10:4b0f DNS Lookup Test
https://ipv6.4pir.nl YES YES 2026-04-21 23:56:37 2a03:3b00:1:0:700a:b7ff:fe10:29d5 DNS Lookup Test
https://ipv6.rioolontstopperheerhugowaard.nl YES YES 2026-04-21 23:56:12 2a03:3b00:1:0:700a:b7ff:fe10:4b0f DNS Lookup Test
https://ipv6.evydebeer.nl YES YES 2026-04-21 23:56:07 2a03:3b00:1:0:700a:b7ff:fe10:6722 DNS Lookup Test
https://ipv6.rioolontstoppergouda.nl YES YES 2026-04-21 23:55:31 2a03:3b00:1:0:700a:b7ff:fe10:7d00 DNS Lookup Test
https://ipv6.rioolontstopperdordrecht.nl YES YES 2026-04-21 23:55:28 2a03:3b00:1:0:700a:b7ff:fe10:6722 DNS Lookup Test
https://ipv6.rioolontstopperbloemendaal.nl YES YES 2026-04-21 23:55:19 2a03:3b00:1:0:700a:b7ff:fe10:6c75 DNS Lookup Test
https://ipv6.jpbouwentimmerwerk.nl YES YES 2026-04-21 23:54:56 2a03:3b00:1:0:700a:b7ff:fe10:4b0f DNS Lookup Test
https://ipv6.rioolontstopperdronten.nl YES YES 2026-04-21 23:54:13 2a03:3b00:1:0:700a:b7ff:fe10:6750 DNS Lookup Test
https://ipv6.rioolontstopperhoorn.nl YES YES 2026-04-21 23:53:44 2a03:3b00:1:0:700a:b7ff:fe10:7d00 DNS Lookup Test
https://ipv6.rioolontstopperhilversum.nl YES YES 2026-04-21 23:53:35 2a03:3b00:1:0:700a:b7ff:fe10:73cc DNS Lookup Test
https://ipv6.franekertennisclub.nl YES YES 2026-04-21 23:53:35 2a03:3b00:1:0:700a:b7ff:fe10:5beb DNS Lookup Test
https://ipv6.rioolontstopperdriebergen.nl YES YES 2026-04-21 23:53:29 2a03:3b00:1:0:700a:b7ff:fe10:29d5 DNS Lookup Test
https://ipv6.rioolontstopperijmuiden.nl YES YES 2026-04-21 23:53:12 2a03:3b00:1:0:700a:b7ff:fe10:4241 DNS Lookup Test
https://ipv6.alinea.nl YES YES 2026-04-21 23:53:01 2a03:3b00:1:0:700a:b7ff:fe10:1286 DNS Lookup Test
https://ipv6.flexionmanagement.nl YES YES 2026-04-21 23:52:58 2a03:3b00:1:0:700a:b7ff:fe10:5beb DNS Lookup Test
https://ipv6.rioolontstopperhoofddorp.nl YES YES 2026-04-21 23:52:57 2a03:3b00:1:0:700a:b7ff:fe10:4429 DNS Lookup Test
https://ipv6.tandartsenpraktijkliendert.nl YES YES 2026-04-21 23:52:49 2a03:3b00:1:0:700a:b7ff:fe10:5500 DNS Lookup Test
https://ipv6.oosterseveld.nl YES YES 2026-04-21 23:52:48 2a03:3b00:1:0:700a:b7ff:fe10:29d5 DNS Lookup Test
https://ipv6.rioolontstopperzeewolde.nl YES YES 2026-04-21 23:52:31 2a03:3b00:1:0:700a:b7ff:fe10:4429 DNS Lookup Test
https://ipv6.nobudgetfilms.nl YES YES 2026-04-21 23:50:36 2a03:3b00:1:0:700a:b7ff:fe10:29d5 DNS Lookup Test
https://ipv6.exloovooruit.nl YES YES 2026-04-21 23:47:18 2a03:3b00:1:0:700a:b7ff:fe10:5beb DNS Lookup Test
https://ipv6.stichtingfabrikaat.nl YES YES 2026-04-21 23:46:21 2a03:3b00:1:0:700a:b7ff:fe10:5500 DNS Lookup Test
https://ipv6.gh-design.nl YES YES 2026-04-21 23:44:24 2a03:3b00:1:0:700a:b7ff:fe10:169f DNS Lookup Test
https://ipv6.spelcomputerpro.nl YES YES 2026-04-21 23:42:58 2a03:3b00:1:0:700a:b7ff:fe10:5500 DNS Lookup Test
https://ipv6.broekoplangedijkfashion.nl YES YES 2026-04-21 23:41:57 2a03:3b00:1:0:700a:b7ff:fe10:6722 DNS Lookup Test
https://ipv6.soullife.nl YES YES 2026-04-21 23:41:56 2a03:3b00:1:0:700a:b7ff:fe10:5500 DNS Lookup Test
https://ipv6.mavoauto.nl YES YES 2026-04-21 23:41:16 2a03:3b00:1:0:700a:b7ff:fe10:29d5 DNS Lookup Test
https://ipv6.luisterdit.nl YES YES 2026-04-21 23:34:25 2a03:3b00:1:0:700a:b7ff:fe10:7d00 DNS Lookup Test
https://ipv6.energiecoaching010.nl YES YES 2026-04-21 23:33:35 2a03:3b00:1:0:700a:b7ff:fe10:169f DNS Lookup Test
https://ipv6.lecer.nl YES YES 2026-04-21 23:33:30 2a03:3b00:1:0:700a:b7ff:fe10:29d5 DNS Lookup Test
https://ipv6.aowjongerenkoor.nl YES YES 2026-04-21 23:32:00 2a03:3b00:1:0:700a:b7ff:fe10:6722 DNS Lookup Test
https://ipv6.rijckenberg.nl YES YES 2026-04-21 23:27:36 2a03:3b00:1:0:700a:b7ff:fe10:5500 DNS Lookup Test
https://ipv6.sdjvloeren.nl YES YES 2026-04-21 23:26:35 2a03:3b00:1:0:700a:b7ff:fe10:73cc DNS Lookup Test
https://ipv6.marygowild.nl YES YES 2026-04-21 23:25:29 2a03:3b00:1:0:700a:b7ff:fe10:5910 DNS Lookup Test
https://ipv6.montagebedrijfveenstra.nl YES YES 2026-04-21 23:24:45 2a03:3b00:1:0:700a:b7ff:fe10:737a DNS Lookup Test
https://ipv6.magdynashed.nl YES YES 2026-04-21 23:23:46 2a03:3b00:1:0:700a:b7ff:fe10:5910 DNS Lookup Test
https://ipv6.pulsesandgrains.nl YES YES 2026-04-21 23:22:51 2a03:3b00:1:0:700a:b7ff:fe10:5500 DNS Lookup Test
https://ipv6.galladio.nl YES YES 2026-04-21 23:22:19 2a03:3b00:1:0:700a:b7ff:fe10:1286 DNS Lookup Test
https://ipv6.prescom.nl YES YES 2026-04-21 23:22:13 2a03:3b00:1:0:700a:b7ff:fe10:5500 DNS Lookup Test
https://ipv6.electric-fitness.nl YES YES 2026-04-21 23:21:33 2a03:3b00:1:0:700a:b7ff:fe10:1286 DNS Lookup Test
https://ipv6.caravanstallinglandvanweert.nl YES YES 2026-04-21 23:21:20 2a03:3b00:1:0:700a:b7ff:fe10:169f DNS Lookup Test
https://ipv6.hmdejongewoerden.nl YES YES 2026-04-21 23:21:16 2a03:3b00:1:0:700a:b7ff:fe10:737a DNS Lookup Test
https://ipv6.petraeigner.nl YES YES 2026-04-21 23:21:12 2a03:3b00:1:0:700a:b7ff:fe10:73cc DNS Lookup Test
https://ipv6.bvdebeer.nl YES YES 2026-04-21 23:20:51 2a03:3b00:1:0:700a:b7ff:fe10:169f DNS Lookup Test
https://ipv6.frank-slot.nl YES YES 2026-04-21 23:16:27 2a03:3b00:1:0:700a:b7ff:fe10:737a DNS Lookup Test
https://ipv6.quantaloop.nl YES YES 2026-04-21 23:14:09 2a03:3b00:1:0:700a:b7ff:fe10:7fe2 DNS Lookup Test
https://ipv6.lightshirt.nl YES YES 2026-04-21 23:09:57 2a03:3b00:1:0:700a:b7ff:fe10:29d5 DNS Lookup Test
https://ipv6.ecotechcoat.nl YES YES 2026-04-21 23:09:40 2a03:3b00:1:0:700a:b7ff:fe10:5910 DNS Lookup Test
https://ipv6.ajaxinfo.nl YES YES 2026-04-21 23:09:25 2a03:3b00:1:0:700a:b7ff:fe10:737a DNS Lookup Test
https://ipv6.80jaarvrijheiddoetinchem.nl YES YES 2026-04-21 23:04:41 2a03:3b00:1:0:700a:b7ff:fe10:3ba8 DNS Lookup Test
https://ipv6.bedruktebanieren.nl YES YES 2026-04-21 23:04:01 2a03:3b00:1:0:700a:b7ff:fe10:3ba8 DNS Lookup Test
https://ipv6.rioolontstopperzaandam.nl YES YES 2026-04-21 22:53:58 2a03:3b00:1:0:700a:b7ff:fe10:6722 DNS Lookup Test
https://ipv6.rioolonstoppenbeverwijk.nl YES YES 2026-04-21 22:52:56 2a03:3b00:1:0:700a:b7ff:fe10:6c75 DNS Lookup Test
https://ipv6.rioolontstopperzeist.nl YES YES 2026-04-21 22:52:54 2a03:3b00:1:0:700a:b7ff:fe10:5910 DNS Lookup Test
https://ipv6.timelessyachts.nl YES YES 2026-04-21 22:38:13 2a04:3544:1000:1510:3cc8:64ff:fefa:31e3 DNS Lookup Test
https://ipv6.uhsk.nl YES YES 2026-04-21 21:49:38 2a03:3b00:1:0:700a:b7ff:fe10:5910 DNS Lookup Test
https://ipv6.totalwebshops.nl YES YES 2026-04-21 21:43:45 2a03:3b00:1:0:700a:b7ff:fe10:5500 DNS Lookup Test
https://ipv6.rioolontstopperlelystad.nl YES YES 2026-04-21 21:43:25 2a03:3b00:1:0:700a:b7ff:fe10:3ee9 DNS Lookup Test
https://ipv6.hermseninkoopadvies.nl YES YES 2026-04-21 21:40:47 2a03:3b00:1:0:700a:b7ff:fe10:737a DNS Lookup Test
https://ipv6.graaggegeven.nl YES YES 2026-04-21 21:37:12 2a03:3b00:1:0:700a:b7ff:fe10:737a DNS Lookup Test
https://ipv6.domeincentrum.nl YES YES 2026-04-21 21:36:01 2a03:3b00:1:0:700a:b7ff:fe10:5beb DNS Lookup Test
https://ipv6.mdsales.nl YES YES 2026-04-21 21:28:50 2a12:5040:1:301:c8c2:71ff:fe7a:3a3c DNS Lookup Test
https://ipv6.juwelierkramer.nl YES YES 2026-04-21 21:27:45 2a03:3b00:1:0:700a:b7ff:fe10:5500 DNS Lookup Test
https://ipv6.visualwerkt.nl YES YES 2026-04-21 21:15:00 2a03:3b00:1:0:700a:b7ff:fe10:5beb DNS Lookup Test
https://ipv6.bilbija.nl YES YES 2026-04-21 21:03:52 2a03:3b00:1:0:700a:b7ff:fe10:73cc DNS Lookup Test
https://ipv6.beboldmedia.nl YES YES 2026-04-21 20:51:08 2a03:3b00:1:0:700a:b7ff:fe10:4429 DNS Lookup Test
https://ipv6.bepurefashion.nl YES YES 2026-04-21 20:49:25 2a03:3b00:1:0:700a:b7ff:fe10:4516 DNS Lookup Test
https://ipv6.fitcentralezeist.nl YES YES 2026-04-21 20:41:08 2a03:3b00:1:0:700a:b7ff:fe10:3ee9 DNS Lookup Test
https://ipv6.weidijkmontage.nl YES YES 2026-04-21 20:00:30 2a03:3b00:1:0:700a:b7ff:fe10:7d00 DNS Lookup Test
https://ipv6.koopweisch.nl YES YES 2026-04-21 19:47:36 2a03:3b00:1:0:700a:b7ff:fe10:20ec DNS Lookup Test
https://ipv6.dewit-to.nl YES YES 2026-04-21 19:44:55 2a03:3b00:1:0:700a:b7ff:fe10:737a DNS Lookup Test
https://ipv6.erdimopjewerk.nl YES YES 2026-04-21 19:41:34 2a03:3b00:1:0:700a:b7ff:fe10:4279 DNS Lookup Test
https://ipv6.staytnd.nl YES YES 2026-04-21 19:41:26 2a03:3b00:1:0:700a:b7ff:fe10:4516 DNS Lookup Test
https://ipv6.vdbergwapse.nl YES YES 2026-04-21 19:37:15 2a03:3b00:1:0:700a:b7ff:fe10:6750 DNS Lookup Test
https://ipv6.jvmwoondiensten.nl YES YES 2026-04-21 19:34:01 2a03:3b00:1:0:700a:b7ff:fe10:4429 DNS Lookup Test
https://ipv6.ac-tuinen.nl YES YES 2026-04-21 19:33:48 2a12:5040:2:600:be24:11ff:feab:8ae8 DNS Lookup Test
https://ipv6.meesverhaaff.nl YES YES 2026-04-21 19:24:50 2a03:3b00:1:0:700a:b7ff:fe10:73cc DNS Lookup Test
https://ipv6.jschmidt.nl YES YES 2026-04-21 19:10:18 2a03:3b00:1:0:700a:b7ff:fe10:4b0f DNS Lookup Test
https://ipv6.familiedaniels.nl YES YES 2026-04-21 18:55:46 2a12:5040:1:303:1086:43ff:fe1c:a89c DNS Lookup Test
https://ipv6.annetsvangnet.nl YES YES 2026-04-21 18:52:45 2a03:3b00:1:0:700a:b7ff:fe10:4429 DNS Lookup Test
https://ipv6.multi-click.nl YES YES 2026-04-21 18:31:58 2a03:3b00:1:0:700a:b7ff:fe10:3ba8 DNS Lookup Test
https://ipv6.vitatext.nl YES YES 2026-04-21 18:21:37 2a12:5040:1:301:18bc:d5ff:fe26:6284 DNS Lookup Test
https://ipv6.overcinge.nl YES YES 2026-04-21 18:16:33 2a03:3b00:1:0:700a:b7ff:fe10:1cdf DNS Lookup Test
https://ipv6.akibvastgoed.nl YES YES 2026-04-21 18:00:33 2a03:3b00:1:0:700a:b7ff:fe10:5fbb DNS Lookup Test
https://ipv6.jouwpvcvloer.nl YES YES 2026-04-21 17:59:39 2a03:3b00:1:0:700a:b7ff:fe10:4241 DNS Lookup Test
https://ipv6.leobenedict.nl YES YES 2026-04-21 17:49:15 2a03:3b00:1:0:700a:b7ff:fe10:6750 DNS Lookup Test
https://ipv6.taste2.nl YES YES 2026-04-21 17:46:15 2a03:3b00:1:0:700a:b7ff:fe10:4429 DNS Lookup Test
https://ipv6.vanvelsengk.nl YES YES 2026-04-21 17:33:46 2a03:3b00:1:0:700a:b7ff:fe10:3ee9 DNS Lookup Test
https://ipv6.2thepointbv.nl YES YES 2026-04-21 17:32:56 2a03:3b00:1:0:700a:b7ff:fe10:3ee9 DNS Lookup Test
https://ipv6.tasfin.nl YES YES 2026-04-21 17:24:11 2a03:3b00:1:0:700a:b7ff:fe10:3ee9 DNS Lookup Test
https://ipv6.stichtingdedoorbraak.nl YES YES 2026-04-21 17:21:36 2a03:3b00:1:0:700a:b7ff:fe10:3ee9 DNS Lookup Test
https://ipv6.skw-certificatie.nl YES YES 2026-04-21 17:18:37 2a03:3b00:1:0:700a:b7ff:fe10:3ee9 DNS Lookup Test
https://ipv6.bullensbouw.nl YES YES 2026-04-21 17:18:04 2a03:3b00:1:0:700a:b7ff:fe10:7d00 DNS Lookup Test
https://ipv6.verdellentrading.nl YES YES 2026-04-21 17:16:44 2a12:5040:2:600:be24:11ff:feab:8ae8 DNS Lookup Test
https://ipv6.accountantskantoor-venlo.nl YES YES 2026-04-21 16:59:01 2a03:3b00:1:0:700a:b7ff:fe10:1286 DNS Lookup Test
https://ipv6.hetcafevanwervershoof.nl YES YES 2026-04-21 16:44:47 2a03:3b00:1:0:700a:b7ff:fe10:7d00 DNS Lookup Test
https://ipv6.vliegop.nl YES YES 2026-04-21 16:44:07 2a03:3b00:1:0:700a:b7ff:fe10:1286 DNS Lookup Test
https://ipv6.hoepakikhetaan.nl YES YES 2026-04-21 16:42:08 2a03:3b00:1:0:700a:b7ff:fe10:5fbb DNS Lookup Test
https://ipv6.rioolonstopperzoetermeer.nl YES YES 2026-04-21 16:34:55 2a03:3b00:1:0:700a:b7ff:fe10:4b0f DNS Lookup Test
https://ipv6.rioolontstopperutrecht.nl YES YES 2026-04-21 16:33:58 2a03:3b00:1:0:700a:b7ff:fe10:6722 DNS Lookup Test
https://ipv6.mestfest.nl YES YES 2026-04-21 16:11:11 2a03:3b00:1:0:700a:b7ff:fe10:5fbb DNS Lookup Test
https://ipv6.paulaarts.nl YES YES 2026-04-21 16:02:06 2a03:3b00:1:0:700a:b7ff:fe10:4516 DNS Lookup Test
https://ipv6.zazasdiner.nl YES YES 2026-04-21 15:41:37 2a03:3b00:1:0:700a:b7ff:fe10:4429 DNS Lookup Test
https://ipv6.shoppe.nl YES YES 2026-04-21 15:20:47 2a03:3b00:1:0:700a:b7ff:fe10:5beb DNS Lookup Test
https://ipv6.schilderijen.nl YES YES 2026-04-21 15:19:34 2a03:3b00:1:0:700a:b7ff:fe10:3ee9 DNS Lookup Test
https://ipv6.portsupervisor.nl YES YES 2026-04-21 15:16:17 2a03:3b00:1:0:700a:b7ff:fe10:3ee9 DNS Lookup Test
https://ipv6.pchulpoldehove.nl YES YES 2026-04-21 15:15:45 2a03:3b00:1:0:700a:b7ff:fe10:3ee9 DNS Lookup Test
https://ipv6.profectum.nl YES YES 2026-04-21 15:15:31 2a03:3b00:1:0:700a:b7ff:fe10:3ee9 DNS Lookup Test
https://ipv6.pantarheiuitvaartbegeleiding.nl YES YES 2026-04-21 15:12:51 2a03:3b00:1:0:700a:b7ff:fe10:3ee9 DNS Lookup Test
https://ipv6.microcementstudio.nl YES YES 2026-04-21 15:05:40 2a03:3b00:1:0:700a:b7ff:fe10:3ee9 DNS Lookup Test
https://ipv6.linguaschools.nl YES YES 2026-04-21 15:00:07 2a03:3b00:1:0:700a:b7ff:fe10:3ee9 DNS Lookup Test
https://ipv6.jaapvenendaal.nl YES YES 2026-04-21 14:55:46 2a03:3b00:1:0:700a:b7ff:fe10:3ee9 DNS Lookup Test
https://ipv6.jubinair.nl YES YES 2026-04-21 14:54:29 2a03:3b00:1:0:700a:b7ff:fe10:3ee9 DNS Lookup Test
https://ipv6.illstore.nl YES YES 2026-04-21 14:53:37 2a03:3b00:1:0:700a:b7ff:fe10:3ee9 DNS Lookup Test
https://ipv6.tgvm.nl YES YES 2026-04-21 14:51:15 2a03:3b00:1:0:700a:b7ff:fe10:3ee9 DNS Lookup Test
https://ipv6.hetnieuwewoordenboek.nl YES YES 2026-04-21 14:50:34 2a03:3b00:1:0:700a:b7ff:fe10:3ee9 DNS Lookup Test
https://ipv6.fintelligentfa.nl YES YES 2026-04-21 14:40:34 2a03:3b00:1:0:700a:b7ff:fe10:3ee9 DNS Lookup Test
https://ipv6.bniadelaar.nl YES YES 2026-04-21 14:26:07 2a03:3b00:1:0:700a:b7ff:fe10:3ee9 DNS Lookup Test
https://ipv6.betalis.nl YES YES 2026-04-21 14:25:28 2a03:3b00:1:0:700a:b7ff:fe10:3ee9 DNS Lookup Test
https://ipv6.aftonro.nl YES YES 2026-04-21 14:14:30 2a03:3b00:1:0:700a:b7ff:fe10:3ee9 DNS Lookup Test
https://ipv6.klusbusnederland.nl YES YES 2026-04-21 13:37:35 2a03:3b00:1:0:700a:b7ff:fe10:3ee9 DNS Lookup Test
https://ipv6.denbuttertechniek.nl YES YES 2026-04-21 13:31:56 2a12:5040:1:301:18bc:d5ff:fe26:6284 DNS Lookup Test
https://ipv6.factumstrategyconsultancy.nl YES YES 2026-04-21 13:19:42 2a03:3b00:1:0:700a:b7ff:fe10:20ec DNS Lookup Test
https://ipv6.dutchgraphicmachinery.nl YES YES 2026-04-21 13:18:40 2a03:3b00:1:0:700a:b7ff:fe10:3ee9 DNS Lookup Test
https://ipv6.danielhartog.nl YES YES 2026-04-21 13:15:58 2a03:3b00:1:0:700a:b7ff:fe10:3ee9 DNS Lookup Test
https://ipv6.zoewhite.nl YES YES 2026-04-21 13:11:32 2a03:3b00:1:0:700a:b7ff:fe10:5500 DNS Lookup Test
https://ipv6.inevel.nl YES YES 2026-04-21 13:11:11 2a03:3b00:1:0:700a:b7ff:fe10:6722 DNS Lookup Test
https://ipv6.bv-ia.nl YES YES 2026-04-21 13:09:46 2a03:3b00:1:0:700a:b7ff:fe10:3ee9 DNS Lookup Test
https://ipv6.westbeemster.nl YES YES 2026-04-21 12:30:46 2a03:3b00:1:0:700a:b7ff:fe10:73cc DNS Lookup Test
https://ipv6.sinor.nl YES YES 2026-04-21 12:28:37 2a03:3b00:1:0:700a:b7ff:fe10:73cc DNS Lookup Test
https://ipv6.noluvi.nl YES YES 2026-04-21 12:24:49 2a03:3b00:1:0:700a:b7ff:fe10:73cc DNS Lookup Test
https://ipv6.mthfam.nl YES YES 2026-04-21 12:21:00 2a03:3b00:1:0:700a:b7ff:fe10:73cc DNS Lookup Test
https://ipv6.vormb.nl YES YES 2026-04-21 12:18:16 2a03:3b00:1:0:700a:b7ff:fe10:6722 DNS Lookup Test
https://ipv6.vanbraakfotografie.nl YES YES 2026-04-21 12:17:47 2a03:3b00:1:0:700a:b7ff:fe10:6722 DNS Lookup Test
https://ipv6.wenmed.nl YES YES 2026-04-21 12:16:18 2a03:3b00:1:0:700a:b7ff:fe10:29d5 DNS Lookup Test
https://ipv6.universalhealth.nl YES YES 2026-04-21 12:15:30 2a03:3b00:1:0:700a:b7ff:fe10:6722 DNS Lookup Test
https://ipv6.karelmatla.nl YES YES 2026-04-21 12:11:29 2a03:3b00:1:0:700a:b7ff:fe10:73cc DNS Lookup Test
https://ipv6.jbrouwermetaal.nl YES YES 2026-04-21 12:10:36 2a03:3b00:1:0:700a:b7ff:fe10:5910 DNS Lookup Test
https://ipv6.schuilinggroep.nl YES YES 2026-04-21 11:57:32 2a03:3b00:1:0:700a:b7ff:fe10:5910 DNS Lookup Test
https://ipv6.rdb-company.nl YES YES 2026-04-21 11:56:47 2a03:3b00:1:0:700a:b7ff:fe10:5910 DNS Lookup Test
https://ipv6.ortho4life.nl YES YES 2026-04-21 11:53:57 2a03:3b00:1:0:700a:b7ff:fe10:5500 DNS Lookup Test
https://ipv6.pintailbv.nl YES YES 2026-04-21 11:53:54 2a03:3b00:1:0:700a:b7ff:fe10:5500 DNS Lookup Test
https://ipv6.total-shave.nl YES YES 2026-04-21 11:53:28 2a03:3b00:1:0:700a:b7ff:fe10:29d5 DNS Lookup Test
https://ipv6.tmksport.nl YES YES 2026-04-21 11:51:40 2a03:3b00:1:0:700a:b7ff:fe10:6722 DNS Lookup Test
https://ipv6.tm-verhuur.nl YES YES 2026-04-21 11:49:10 2a03:3b00:1:0:700a:b7ff:fe10:6722 DNS Lookup Test
https://ipv6.jkwinstallaties.nl YES YES 2026-04-21 11:47:58 2a03:3b00:1:0:700a:b7ff:fe10:5910 DNS Lookup Test
https://ipv6.spotrepairlimburg.nl YES YES 2026-04-21 11:45:59 2a03:3b00:1:0:700a:b7ff:fe10:6722 DNS Lookup Test
https://ipv6.huurdersverenigingbronckhorst.nl YES YES 2026-04-21 11:43:58 2a03:3b00:1:0:700a:b7ff:fe10:5910 DNS Lookup Test
https://ipv6.icej.nl YES YES 2026-04-21 11:43:45 2a03:3b00:1:0:700a:b7ff:fe10:73cc DNS Lookup Test
https://ipv6.groenestein-ts.nl YES YES 2026-04-21 11:40:20 2a03:3b00:1:0:700a:b7ff:fe10:5910 DNS Lookup Test
https://ipv6.pijsmontage.nl YES YES 2026-04-21 11:40:02 2a03:3b00:1:0:700a:b7ff:fe10:29d5 DNS Lookup Test
https://ipv6.ivynd.nl YES YES 2026-04-21 11:39:23 2a03:3b00:1:0:700a:b7ff:fe10:5500 DNS Lookup Test
https://ipv6.minipop.nl YES YES 2026-04-21 11:37:46 2a03:3b00:1:0:700a:b7ff:fe10:29d5 DNS Lookup Test
https://ipv6.frietvanrichard.nl YES YES 2026-04-21 11:37:13 2a03:3b00:1:0:700a:b7ff:fe10:5910 DNS Lookup Test
https://ipv6.emmathomson.nl YES YES 2026-04-21 11:36:07 2a03:3b00:1:0:700a:b7ff:fe10:73cc DNS Lookup Test
https://ipv6.huismansdakwerken.nl YES YES 2026-04-21 11:35:21 2a03:3b00:1:0:700a:b7ff:fe10:29d5 DNS Lookup Test
https://ipv6.webshop4it.nl YES YES 2026-04-21 11:34:58 2a03:3b00:1:0:700a:b7ff:fe10:4516 DNS Lookup Test
https://ipv6.studievereniging-equilibrium.nl YES YES 2026-04-21 11:33:16 2a03:3b00:1:0:700a:b7ff:fe10:5910 DNS Lookup Test
https://ipv6.scheb.nl YES YES 2026-04-21 11:32:50 2a03:3b00:1:0:700a:b7ff:fe10:169f DNS Lookup Test
https://ipv6.sabei.nl YES YES 2026-04-21 11:30:34 2a03:3b00:1:0:700a:b7ff:fe10:4516 DNS Lookup Test
https://ipv6.greencort.nl YES YES 2026-04-21 11:30:33 2a03:3b00:1:0:700a:b7ff:fe10:29d5 DNS Lookup Test
https://ipv6.estervegt.nl YES YES 2026-04-21 11:29:11 2a03:3b00:1:0:700a:b7ff:fe10:29d5 DNS Lookup Test
https://ipv6.beterweterings.nl YES YES 2026-04-21 11:28:45 2a03:3b00:1:0:700a:b7ff:fe10:6722 DNS Lookup Test
https://ipv6.edzedeboer.nl YES YES 2026-04-21 11:27:19 2a03:3b00:1:0:700a:b7ff:fe10:5500 DNS Lookup Test
https://ipv6.bwlr.nl YES YES 2026-04-21 11:27:17 2a03:3b00:1:0:700a:b7ff:fe10:73cc DNS Lookup Test
https://ipv6.fam-lith.nl YES YES 2026-04-21 11:27:15 2a03:3b00:1:0:700a:b7ff:fe10:5500 DNS Lookup Test
https://ipv6.communicatiekringnijmegen.nl YES YES 2026-04-21 11:23:08 2a03:3b00:1:0:700a:b7ff:fe10:5910 DNS Lookup Test
https://ipv6.jcvanderhart.nl YES YES 2026-04-21 11:21:52 2a03:3b00:1:0:700a:b7ff:fe10:169f DNS Lookup Test
https://ipv6.hulpbijonderzoek.nl YES YES 2026-04-21 11:21:05 2a03:3b00:1:0:700a:b7ff:fe10:169f DNS Lookup Test
https://ipv6.cartigny-advies.nl YES YES 2026-04-21 11:19:56 2a03:3b00:1:0:700a:b7ff:fe10:5910 DNS Lookup Test
https://ipv6.glimmo.nl YES YES 2026-04-21 11:18:15 2a03:3b00:1:0:700a:b7ff:fe10:6722 DNS Lookup Test
https://ipv6.etoolmedia.nl YES YES 2026-04-21 11:17:08 2a03:3b00:1:0:700a:b7ff:fe10:6722 DNS Lookup Test
https://ipv6.grunnoffshore.nl YES YES 2026-04-21 11:16:25 2a03:3b00:1:0:700a:b7ff:fe10:4516 DNS Lookup Test
https://ipv6.brewingbrands.nl YES YES 2026-04-21 11:14:40 2a03:3b00:1:0:700a:b7ff:fe10:169f DNS Lookup Test
https://ipv6.administratiekantoorrond.nl YES YES 2026-04-21 11:14:23 2a03:3b00:1:0:700a:b7ff:fe10:6722 DNS Lookup Test
https://ipv6.antoniusdeusing.nl YES YES 2026-04-21 11:12:09 2a03:3b00:1:0:700a:b7ff:fe10:5910 DNS Lookup Test
https://ipv6.alsafa.nl YES YES 2026-04-21 11:12:07 2a03:3b00:1:0:700a:b7ff:fe10:73cc DNS Lookup Test
https://ipv6.advangilsmotors.nl YES YES 2026-04-21 11:11:52 2a03:3b00:1:0:700a:b7ff:fe10:6722 DNS Lookup Test
https://ipv6.vixentrainingenadvies.nl YES YES 2026-04-21 11:10:56 2a03:3b00:1:0:700a:b7ff:fe10:73cc DNS Lookup Test
https://ipv6.team-a-mailspacechallenge.nl YES YES 2026-04-21 11:09:48 2a03:3b00:1:0:700a:b7ff:fe10:7d00 DNS Lookup Test
https://ipv6.rijdenmetcoos.nl YES YES 2026-04-21 11:08:56 2a03:3b00:1:0:700a:b7ff:fe10:73cc DNS Lookup Test
https://ipv6.wijmakenmooiemomenten.nl YES YES 2026-04-21 11:08:18 2a03:3b00:1:0:700a:b7ff:fe10:6722 DNS Lookup Test
https://ipv6.team-b-mailspacechallenge.nl YES YES 2026-04-21 11:08:00 2a03:3b00:1:0:700a:b7ff:fe10:4279 DNS Lookup Test
https://ipv6.restaurantnamaskar.nl YES YES 2026-04-21 10:39:10 2a03:3b00:1:0:700a:b7ff:fe10:5910 DNS Lookup Test
https://ipv6.stg.samson-it.nl YES YES 2026-04-21 10:33:01 2a03:3b00:1:0:700a:b7ff:fe10:29d5 DNS Lookup Test
https://ipv6.thuisstudiereviews.nl YES YES 2026-04-21 10:29:55 2a03:3b00:1:0:700a:b7ff:fe10:6722 DNS Lookup Test
https://ipv6.hetsleutelhuis.nl YES YES 2026-04-21 10:24:48 2a03:3b00:1:0:700a:b7ff:fe10:5910 DNS Lookup Test
https://ipv6.webcrafters.nl YES YES 2026-04-21 10:20:02 2a03:3b00:1:0:700a:b7ff:fe10:169f DNS Lookup Test
https://ipv6.hrpsupport.nl YES YES 2026-04-21 10:17:23 2a03:3b00:1:0:700a:b7ff:fe10:5500 DNS Lookup Test
https://ipv6.flowrecht.nl YES YES 2026-04-21 10:13:33 2a03:3b00:1:0:700a:b7ff:fe10:4279 DNS Lookup Test
https://ipv6.dgconsulting.nl YES YES 2026-04-21 10:08:12 2a03:3b00:1:0:700a:b7ff:fe10:5910 DNS Lookup Test
https://ipv6.keijzerpianos.nl YES YES 2026-04-21 10:05:16 2a03:3b00:1:0:700a:b7ff:fe10:6722 DNS Lookup Test
https://ipv6.dierensteunlavida.nl YES YES 2026-04-21 10:02:38 2a03:3b00:1:0:700a:b7ff:fe10:169f DNS Lookup Test
https://ipv6.fuerzavital.nl YES YES 2026-04-21 10:02:14 2a03:3b00:1:0:700a:b7ff:fe10:6722 DNS Lookup Test
https://ipv6.frituurdeheeg.nl YES YES 2026-04-21 10:02:04 2a03:3b00:1:0:700a:b7ff:fe10:6722 DNS Lookup Test
https://ipv6.esreko.nl YES YES 2026-04-21 09:59:10 2a03:3b00:1:0:700a:b7ff:fe10:4516 DNS Lookup Test
https://ipv6.team-c-mailspacechallenge.nl YES YES 2026-04-21 09:54:59 2a03:3b00:1:0:700a:b7ff:fe10:6c75 DNS Lookup Test
https://ipv6.eat-thai.nl YES YES 2026-04-21 04:58:27 2a03:3b00:1:0:700a:b7ff:fe10:3e6c DNS Lookup Test
https://ipv6.fokkersb.nl YES YES 2026-04-21 01:57:31 2a03:3b00:1:0:700a:b7ff:fe10:3e6c DNS Lookup Test
https://ipv6.plateau-assen.nl YES YES 2026-04-20 20:06:37 2a03:3b00:1:0:700a:b7ff:fe10:3ba8 DNS Lookup Test
https://ipv6.lbsai.nl YES YES 2026-04-20 18:37:43 2a03:3b00:1:0:700a:b7ff:fe10:4b0f DNS Lookup Test
https://ipv6.voortgangfactrics.nl YES YES 2026-04-20 15:48:34 2a03:3b00:1:0:700a:b7ff:fe10:75d9 DNS Lookup Test
https://ipv6.bustchairconversations.nl YES YES 2026-04-20 15:26:12 2a03:3b00:1:0:700a:b7ff:fe10:73cc DNS Lookup Test
https://ipv6.horse-watch.nl YES YES 2026-04-20 15:14:23 2a03:3b00:1:0:700a:b7ff:fe10:75d9 DNS Lookup Test
https://ipv6.barid-trading.nl YES YES 2026-04-20 14:51:09 2a04:3544:1000:1510:3cc8:64ff:fefa:4d32 DNS Lookup Test
https://ipv6.sinaithuiszorg.nl YES YES 2026-04-20 14:33:40 2a03:3b00:1:0:700a:b7ff:fe10:1cdf DNS Lookup Test
https://ipv6.aventoercamperverhuur.nl YES YES 2026-04-20 14:32:12 2a03:3b00:1:0:700a:b7ff:fe10:737a DNS Lookup Test
https://ipv6.design-atelier.nl YES YES 2026-04-20 14:11:02 2a03:3b00:1:0:700a:b7ff:fe10:737a DNS Lookup Test
https://ipv6.developmentfactrics.nl YES YES 2026-04-20 14:10:16 2a03:3b00:1:0:700a:b7ff:fe10:3ba8 DNS Lookup Test
https://ipv6.bminterieurmakers.nl YES YES 2026-04-20 14:10:03 2a03:3b00:1:0:700a:b7ff:fe10:737a DNS Lookup Test
https://ipv6.jhsbouw.nl YES YES 2026-04-20 14:02:20 2a03:3b00:1:0:700a:b7ff:fe10:4241 DNS Lookup Test
https://ipv6.laurensheuzinkveld.nl YES YES 2026-04-20 14:00:41 2a03:3b00:1:0:700a:b7ff:fe10:3e6c DNS Lookup Test
https://ipv6.dansondernemers.nl YES YES 2026-04-20 13:51:38 2a03:3b00:1:0:700a:b7ff:fe10:1286 DNS Lookup Test
https://ipv6.vostruckstyling.nl YES YES 2026-04-20 13:47:17 2a03:3b00:1:0:700a:b7ff:fe10:6750 DNS Lookup Test
https://ipv6.ypol.nl YES YES 2026-04-20 13:38:20 2a03:3b00:1:0:700a:b7ff:fe10:75d9 DNS Lookup Test
https://ipv6.skimerproducties.nl YES YES 2026-04-20 13:27:53 2a03:3b00:1:0:700a:b7ff:fe10:6c75 DNS Lookup Test
https://ipv6.dewenstafel.nl YES YES 2026-04-20 13:08:30 2a03:3b00:1:0:700a:b7ff:fe10:737a DNS Lookup Test
https://ipv6.bothild.nl YES YES 2026-04-20 12:33:05 2a03:3b00:1:0:700a:b7ff:fe10:6750 DNS Lookup Test
https://ipv6.vonktalent.nl YES YES 2026-04-20 12:28:02 2a03:3b00:1:0:700a:b7ff:fe10:4279 DNS Lookup Test
https://ipv6.eikwijt.nl YES YES 2026-04-20 12:23:34 2a03:3b00:1:0:700a:b7ff:fe10:20ec DNS Lookup Test
https://ipv6.exxerion.nl YES YES 2026-04-20 12:21:47 2a03:3b00:1:0:700a:b7ff:fe10:5beb DNS Lookup Test
https://ipv6.rioolontstopperede.nl YES YES 2026-04-20 11:51:15 2a03:3b00:1:0:700a:b7ff:fe10:3ee9 DNS Lookup Test
https://ipv6.afspraakmetmarc.nl YES YES 2026-04-20 11:51:04 2a03:3b00:1:0:700a:b7ff:fe10:4429 DNS Lookup Test
https://ipv6.amorecleaning.nl YES YES 2026-04-20 11:48:02 2a03:3b00:1:0:700a:b7ff:fe10:7d00 DNS Lookup Test
https://ipv6.laagstehoogtepunt.nl YES YES 2026-04-20 11:30:32 2a03:3b00:1:0:700a:b7ff:fe10:6750 DNS Lookup Test
https://ipv6.arinkvastgoedonderhoud.nl YES YES 2026-04-20 11:14:54 2a03:3b00:1:0:700a:b7ff:fe10:4279 DNS Lookup Test
https://ipv6.partyverhuurmoerdijk.nl YES YES 2026-04-20 11:07:21 2a03:3b00:1:0:700a:b7ff:fe10:4516 DNS Lookup Test
https://ipv6.veenmultiservice.nl YES YES 2026-04-20 10:41:25 2a12:5040:1:301:348d:92ff:fede:27c6 DNS Lookup Test
https://ipv6.ladylightworks.nl YES YES 2026-04-20 10:33:02 2a12:5040:1:301:c8c2:71ff:fe7a:3a3c DNS Lookup Test
https://ipv6.corespace.nl YES YES 2026-04-20 10:31:06 2a03:3b00:1:0:700a:b7ff:fe10:1286 DNS Lookup Test
https://ipv6.uitvaartzorgelzinga.nl YES YES 2026-04-20 10:30:19 2a03:3b00:1:0:700a:b7ff:fe10:4279 DNS Lookup Test
https://ipv6.transmission-hoorn.nl YES YES 2026-04-20 10:22:05 2a03:3b00:1:0:700a:b7ff:fe10:5beb DNS Lookup Test
https://ipv6.nagelnij.nl YES YES 2026-04-20 10:21:23 2a03:3b00:1:0:700a:b7ff:fe10:5beb DNS Lookup Test
https://ipv6.prumpelstownestate.nl YES YES 2026-04-20 10:09:17 2a03:3b00:1:0:700a:b7ff:fe10:4279 DNS Lookup Test
https://ipv6.rioolontstopperzwolle.nl YES YES 2026-04-20 10:00:14 2a03:3b00:1:0:700a:b7ff:fe10:1286 DNS Lookup Test
https://ipv6.rioolontstopperzoetermeer.nl YES YES 2026-04-20 09:59:29 2a03:3b00:1:0:700a:b7ff:fe10:737a DNS Lookup Test
https://ipv6.kinderopvangpietjepuk.nl YES YES 2026-04-20 09:44:51 2a03:3b00:1:0:700a:b7ff:fe10:3ba8 DNS Lookup Test
https://ipv6.ctenderto.nl YES YES 2026-04-20 09:06:49 2a03:3b00:1:0:700a:b7ff:fe10:4241 DNS Lookup Test
https://ipv6.prinsmantelzorgmakelaar.nl YES YES 2026-04-20 08:50:52 2a03:3b00:1:0:700a:b7ff:fe10:5beb DNS Lookup Test
https://ipv6.mercedesspecialistreeuwijk.nl YES YES 2026-04-20 08:46:28 2a03:3b00:1:0:700a:b7ff:fe10:20ec DNS Lookup Test
https://ipv6.jvamedia.nl YES YES 2026-04-20 08:26:55 2a03:3b00:1:0:700a:b7ff:fe10:1286 DNS Lookup Test
https://ipv6.adanova.nl YES YES 2026-04-20 08:15:22 2a03:3b00:1:0:700a:b7ff:fe10:6c75 DNS Lookup Test
https://ipv6.workfutura.nl YES YES 2026-04-20 08:14:17 2a12:5040:2:600:be24:11ff:feb4:f0d1 DNS Lookup Test
https://ipv6.fatexis.nl YES YES 2026-04-20 08:13:44 2a03:3b00:1:0:700a:b7ff:fe10:20ec DNS Lookup Test
https://ipv6.stateshiftbymichel.nl YES YES 2026-04-20 08:08:10 2a03:3b00:1:0:700a:b7ff:fe10:6750 DNS Lookup Test
https://ipv6.goneout.nl YES YES 2026-04-20 08:02:01 2a02:2770:7:0:21a:4aff:fed8:a45 DNS Lookup Test
https://ipv6.wegiveaway.nl YES YES 2026-04-20 07:10:41 2a03:3b00:1:0:700a:b7ff:fe10:4b0f DNS Lookup Test
https://ipv6.dreamiez.nl YES YES 2026-04-20 06:54:07 2a03:3b00:1:0:700a:b7ff:fe10:6c75 DNS Lookup Test
https://ipv6.shopdepot.nl YES YES 2026-04-20 06:44:55 2a03:3b00:1:0:700a:b7ff:fe10:5beb DNS Lookup Test
https://ipv6.hsmedia.nl YES YES 2026-04-20 06:43:28 2a03:3b00:1:0:700a:b7ff:fe10:1cdf DNS Lookup Test
https://ipv6.vaneschplants.nl YES YES 2026-04-20 06:40:34 2a03:3b00:1:0:700a:b7ff:fe10:1cdf DNS Lookup Test
https://ipv6.rioolontstopperamersfoort.nl YES YES 2026-04-20 06:37:19 2a03:3b00:1:0:700a:b7ff:fe10:3ee9 DNS Lookup Test
https://ipv6.jeendespa.nl YES YES 2026-04-20 06:29:51 2a03:3b00:1:0:700a:b7ff:fe10:4279 DNS Lookup Test
https://ipv6.api.solrad.nl YES YES 2026-04-20 06:17:29 2a00:1e28:3:1926::1 DNS Lookup Test
https://ipv6.rioolontstopperpurmerend.nl YES YES 2026-04-20 06:02:40 2a03:3b00:1:0:700a:b7ff:fe10:1286 DNS Lookup Test
https://ipv6.rioolontstopperalkmaar.nl YES YES 2026-04-20 06:01:39 2a03:3b00:1:0:700a:b7ff:fe10:737a DNS Lookup Test
https://ipv6.thuisspeeltuin.nl YES YES 2026-04-20 05:56:21 2a03:3b00:1:0:700a:b7ff:fe10:1286 DNS Lookup Test
https://ipv6.sportmaaltijdshop.nl YES YES 2026-04-20 05:27:38 2a03:3b00:1:0:700a:b7ff:fe10:1cdf DNS Lookup Test
https://ipv6.pedel1896.nl YES YES 2026-04-20 05:27:37 2a03:3b00:1:0:700a:b7ff:fe10:3ba8 DNS Lookup Test
https://ipv6.thijsmussies.nl YES YES 2026-04-20 05:27:37 2a03:3b00:1:0:700a:b7ff:fe10:5beb DNS Lookup Test
https://ipv6.het-oude-westen.nl YES YES 2026-04-20 05:25:58 2a03:3b00:1:0:700a:b7ff:fe10:737a DNS Lookup Test
https://ipv6.reidscapital.nl YES YES 2026-04-20 05:07:44 2a12:5040:2:600:be24:11ff:fe85:e544 DNS Lookup Test
https://ipv6.yi-shu.nl YES YES 2026-04-20 04:58:12 2a03:3b00:1:0:700a:b7ff:fe10:1cdf DNS Lookup Test
https://ipv6.hpzuiderpoort.nl YES YES 2026-04-20 04:56:06 2a03:3b00:1:0:700a:b7ff:fe10:737a DNS Lookup Test
https://ipv6.rioolontstopperapeldoorn.nl YES YES 2026-04-20 04:50:36 2a03:3b00:1:0:700a:b7ff:fe10:1cdf DNS Lookup Test
https://ipv6.rioolontstopperalmere.nl YES YES 2026-04-20 04:48:58 2a03:3b00:1:0:700a:b7ff:fe10:29d5 DNS Lookup Test
https://ipv6.rioolontstopperleiden.nl YES YES 2026-04-20 04:47:59 2a03:3b00:1:0:700a:b7ff:fe10:7d00 DNS Lookup Test
https://ipv6.riool-ontstopper-denhaag.nl YES YES 2026-04-20 04:47:44 2a03:3b00:1:0:700a:b7ff:fe10:1286 DNS Lookup Test
https://ipv6.wiekevanderwal.nl YES YES 2026-04-20 04:36:20 2a03:3b00:1:0:700a:b7ff:fe10:6750 DNS Lookup Test
https://ipv6.hunzecarp.nl YES YES 2026-04-20 04:34:32 2a03:3b00:1:0:700a:b7ff:fe10:4241 DNS Lookup Test
https://ipv6.restaurantamsterdammertje.nl YES YES 2026-04-20 04:27:15 2a03:3b00:1:0:700a:b7ff:fe10:3ba8 DNS Lookup Test
https://ipv6.fkcb.nl YES YES 2026-04-20 04:08:30 2a03:3b00:1:0:700a:b7ff:fe10:20ec DNS Lookup Test
https://ipv6.winkelagro.nl YES YES 2026-04-20 04:07:50 2a03:3b00:1:0:700a:b7ff:fe10:3ba8 DNS Lookup Test
https://ipv6.wilcasrecreatie.nl YES YES 2026-04-20 04:06:32 2a03:3b00:1:0:700a:b7ff:fe10:3ba8 DNS Lookup Test
https://ipv6.badass-rentals.nl YES YES 2026-04-20 04:06:32 2a03:3b00:1:0:700a:b7ff:fe10:3b2f DNS Lookup Test
https://ipv6.vvoosthuizen.nl YES YES 2026-04-20 04:04:27 2a03:3b00:1:0:700a:b7ff:fe10:3ba8 DNS Lookup Test
https://ipv6.vpdetoekomst.nl YES YES 2026-04-20 04:04:05 2a03:3b00:1:0:700a:b7ff:fe10:3e6c DNS Lookup Test
https://ipv6.taily.nl YES YES 2026-04-20 04:00:49 2a03:3b00:1:0:700a:b7ff:fe10:1286 DNS Lookup Test
https://ipv6.theoschipper.nl YES YES 2026-04-20 03:56:46 2a03:3b00:1:0:700a:b7ff:fe10:5fbb DNS Lookup Test
https://ipv6.ronaldmandemakers.nl YES YES 2026-04-20 03:52:10 2a03:3b00:1:0:700a:b7ff:fe10:3ba8 DNS Lookup Test
https://ipv6.360projectgroup.nl YES YES 2026-04-20 03:49:35 2a03:3b00:1:0:700a:b7ff:fe10:3ba8 DNS Lookup Test
https://ipv6.misterlandcruiser.nl YES YES 2026-04-20 03:42:42 2a03:3b00:1:0:700a:b7ff:fe10:3ba8 DNS Lookup Test
https://ipv6.lups.nl YES YES 2026-04-20 03:40:35 2a03:3b00:1:0:700a:b7ff:fe10:3ba8 DNS Lookup Test
https://ipv6.lift.nl YES YES 2026-04-20 03:39:35 2a03:3b00:1:0:700a:b7ff:fe10:3ba8 DNS Lookup Test
https://ipv6.yokos.nl YES YES 2026-04-20 03:38:13 2a03:3b00:1:0:700a:b7ff:fe10:1286 DNS Lookup Test
https://ipv6.berkeley.nl YES YES 2026-04-20 03:36:04 2a03:3b00:1:0:700a:b7ff:fe10:7fe2 DNS Lookup Test
https://ipv6.jadegro.nl YES YES 2026-04-20 03:35:05 2a03:3b00:1:0:700a:b7ff:fe10:3ba8 DNS Lookup Test
https://ipv6.remembermyname.nl YES YES 2026-04-20 03:31:44 2a03:3b00:1:0:700a:b7ff:fe10:1286 DNS Lookup Test
https://ipv6.gewooneveline.nl YES YES 2026-04-20 03:31:28 2a03:3b00:1:0:700a:b7ff:fe10:3ba8 DNS Lookup Test
https://ipv6.pravaha.nl YES YES 2026-04-20 03:28:17 2a03:3b00:1:0:700a:b7ff:fe10:737a DNS Lookup Test
https://ipv6.plazahotels.nl YES YES 2026-04-20 03:26:54 2a03:3b00:1:0:700a:b7ff:fe10:737a DNS Lookup Test
https://ipv6.iease.nl YES YES 2026-04-20 03:26:17 2a03:3b00:1:0:700a:b7ff:fe10:1286 DNS Lookup Test
https://ipv6.corduwener-maquettes.nl YES YES 2026-04-20 03:24:39 2a03:3b00:1:0:700a:b7ff:fe10:3ba8 DNS Lookup Test
https://ipv6.bouwadviesdrenthe.nl YES YES 2026-04-20 03:22:57 2a03:3b00:1:0:700a:b7ff:fe10:3ba8 DNS Lookup Test
https://ipv6.fea2.nl YES YES 2026-04-20 03:21:40 2a03:3b00:1:0:700a:b7ff:fe10:1286 DNS Lookup Test
https://ipv6.cjgwoudenberg.nl YES YES 2026-04-20 03:18:42 2a03:3b00:1:0:700a:b7ff:fe10:737a DNS Lookup Test
https://ipv6.gvcl.nl YES YES 2026-04-20 03:14:55 2a03:3b00:1:0:700a:b7ff:fe10:3ba8 DNS Lookup Test
https://ipv6.probatterij.nl YES YES 2026-04-20 02:50:38 2a03:3b00:1:0:700a:b7ff:fe10:20ec DNS Lookup Test
https://ipv6.lamarcoaching.nl YES YES 2026-04-20 02:41:38 2a03:3b00:1:0:700a:b7ff:fe10:20ec DNS Lookup Test
https://ipv6.huysenhaard.nl YES YES 2026-04-20 02:40:13 2a03:3b00:1:0:700a:b7ff:fe10:73cc DNS Lookup Test
https://ipv6.cbw-quickscan.nl YES YES 2026-04-20 02:31:17 2a03:3b00:1:0:700a:b7ff:fe10:20ec DNS Lookup Test
https://ipv6.lokato.nl YES YES 2026-04-20 02:23:47 2a03:3b00:1:0:700a:b7ff:fe10:73cc DNS Lookup Test
https://ipv6.klutsartificial.nl YES YES 2026-04-20 02:11:08 2a03:3b00:1:0:700a:b7ff:fe10:73cc DNS Lookup Test
https://ipv6.superwebsite.nl YES YES 2026-04-20 02:09:45 2a03:3b00:1:0:700a:b7ff:fe10:7d00 DNS Lookup Test
https://ipv6.singlesfeestje.nl YES YES 2026-04-20 01:54:51 2a03:3b00:1:0:700a:b7ff:fe10:73cc DNS Lookup Test
https://ipv6.tki-agrifood.nl YES YES 2026-04-20 01:43:53 2a03:3b00:1:0:700a:b7ff:fe10:4429 DNS Lookup Test
https://ipv6.xxlmainecoon.nl YES YES 2026-04-20 01:28:04 2a03:3b00:1:0:700a:b7ff:fe10:75d9 DNS Lookup Test
https://ipv6.bouwersvanbinnen.nl YES YES 2026-04-20 01:15:26 2a03:3b00:1:0:700a:b7ff:fe10:5beb DNS Lookup Test
https://ipv6.g-space.nl YES YES 2026-04-20 01:12:00 2a03:3b00:1:0:700a:b7ff:fe10:4516 DNS Lookup Test
https://ipv6.buurtbuszwaanshoek.nl YES YES 2026-04-20 01:10:22 2a03:3b00:1:0:700a:b7ff:fe10:4241 DNS Lookup Test
https://ipv6.jrpassion.nl YES YES 2026-04-20 01:10:12 2a03:3b00:1:0:700a:b7ff:fe10:4279 DNS Lookup Test
https://ipv6.brohans.nl YES YES 2026-05-07 02:35:50 2a10:92c0:1:0:5::c DNS Lookup Test
https://ipv6.songbirdmassagewax.nl YES YES 2026-05-06 19:21:44 2a04:3544:1000:1510:3cc8:64ff:fefa:4d32 DNS Lookup Test
https://ipv6.mijnvandorresteijnbv.nl YES YES 2026-05-06 15:48:19 2a02:cc8::102:229 DNS Lookup Test
https://ipv6.studentparty.utwente.nl YES YES 2026-05-05 13:55:52 2001:67c:2564:a120:1::7f DNS Lookup Test
https://ipv6.rudycraft.nl YES YES 2026-05-05 00:50:45 2a10:92c0:1:0:5::97 DNS Lookup Test
https://ipv6.trendjuf.nl YES YES 2026-05-04 21:51:46 2a02:cc8::102:42 DNS Lookup Test
https://ipv6.stadstelevisiedelft.nl YES YES 2026-05-04 20:14:44 2a02:cc8::102:42 DNS Lookup Test
https://ipv6.segmentinvest.nl YES YES 2026-05-04 20:12:04 2a02:cc8::102:42 DNS Lookup Test
https://ipv6.keesvanham.nl YES YES 2026-05-04 20:01:22 2a02:cc8::102:42 DNS Lookup Test
https://ipv6.seesink-architecten.nl YES YES 2026-05-04 17:50:05 2a02:cc8::102:42 DNS Lookup Test
https://ipv6.fotovanmarco.nl YES YES 2026-05-04 17:20:24 2a02:cc8::102:42 DNS Lookup Test
https://ipv6.doodsimpeler.nl YES YES 2026-05-04 17:18:43 2a02:cc8::102:42 DNS Lookup Test
https://ipv6.desider-o.nl YES YES 2026-05-04 17:17:12 2a02:cc8::102:42 DNS Lookup Test
https://ipv6.csuitvaartkisten.nl YES YES 2026-05-04 17:13:14 2a02:cc8::102:42 DNS Lookup Test
https://ipv6.akbz.nl YES YES 2026-05-04 16:58:06 2a02:cc8::102:42 DNS Lookup Test
https://ipv6.sanrico.nl YES YES 2026-05-04 16:34:47 2a02:cc8::102:42 DNS Lookup Test
https://ipv6.mijnuwtuin.nl YES YES 2026-05-03 00:39:03 2a02:cc8::102:229 DNS Lookup Test
https://ipv6.mijngiddingbuitenzorg.nl YES YES 2026-05-03 00:37:20 2a02:cc8::102:229 DNS Lookup Test
https://ipv6.d-vonkyproductions.nl YES YES 2026-05-02 06:56:25 2a10:92c0:1:0:5::27 DNS Lookup Test
https://ipv6.schaken.utwente.nl YES YES 2026-05-02 06:36:29 2001:67c:2564:a120:1::6c DNS Lookup Test
https://ipv6.hshmc.nl YES YES 2026-05-02 05:39:46 2a10:92c0:1:0:5::44 DNS Lookup Test
https://ipv6.mijnzandbergentuinen.nl YES YES 2026-04-30 19:12:59 2a02:cc8::102:229 DNS Lookup Test
https://ipv6.mijnebbenprojectsupport.nl YES YES 2026-04-30 12:42:32 2a02:cc8::102:229 DNS Lookup Test
https://ipv6.tech2day.nl YES YES 2026-04-28 14:09:31 2a03:3b00:1:0:700a:b7ff:fe10:4b0f DNS Lookup Test
https://ipv6.psychologenpraktijkederveen.nl YES YES 2026-04-28 13:31:10 2a03:3b00:1:0:700a:b7ff:fe10:4b0f DNS Lookup Test
https://ipv6.mediavakvrouw.nl YES YES 2026-04-28 11:58:10 2a03:3b00:1:0:700a:b7ff:fe10:4b0f DNS Lookup Test
https://ipv6.tweevoeter.nl YES YES 2026-04-28 11:49:18 2a03:3b00:1:0:700a:b7ff:fe10:75d9 DNS Lookup Test
https://ipv6.hushnuggies.nl YES YES 2026-04-28 11:35:29 2a03:3b00:1:0:700a:b7ff:fe10:4b0f DNS Lookup Test
https://ipv6.lethalsports.nl YES YES 2026-04-28 11:15:16 2a03:3b00:1:0:700a:b7ff:fe10:1cdf DNS Lookup Test
https://ipv6.katjavangaal.nl YES YES 2026-04-28 10:47:26 2a03:3b00:1:0:700a:b7ff:fe10:6c75 DNS Lookup Test
https://ipv6.praktijkmarijehoof.nl YES YES 2026-04-28 10:42:04 2a03:3b00:1:0:700a:b7ff:fe10:3297 DNS Lookup Test
https://ipv6.honeybirds.nl YES YES 2026-04-28 10:30:49 2a03:3b00:1:0:700a:b7ff:fe10:6c75 DNS Lookup Test
https://ipv6.hosting-tovision.nl YES YES 2026-04-28 10:21:01 2a03:3b00:1:0:700a:b7ff:fe10:5fbb DNS Lookup Test
https://ipv6.kloosterveste-vastgoed.nl YES YES 2026-04-28 10:17:05 2a03:3b00:1:0:700a:b7ff:fe10:3297 DNS Lookup Test
https://ipv6.iraca.nl YES YES 2026-04-28 10:11:19 2a03:3b00:1:0:700a:b7ff:fe10:7d00 DNS Lookup Test
https://ipv6.brietdijk.nl YES YES 2026-04-28 09:14:34 2a03:3b00:1:0:700a:b7ff:fe10:6c75 DNS Lookup Test
https://ipv6.bartsboekhouding.nl YES YES 2026-04-22 14:15:22 2a04:3544:1000:1510:3cc8:64ff:fefa:4d32 DNS Lookup Test
https://ipv6.menlspotrepair.nl YES YES 2026-04-22 14:10:03 2a02:cc8::102:132 DNS Lookup Test
https://ipv6.voedselbankvacatures.nl YES YES 2026-04-22 13:43:58 2a02:cc8::102:132 DNS Lookup Test
https://ipv6.toonip.nl YES YES 2026-04-22 13:06:45 2001:828:400:1039:a6::80 DNS Lookup Test
https://ipv6.mijnvostuinvisie.nl YES YES 2026-04-22 12:50:40 2a02:cc8::102:229 DNS Lookup Test
https://ipv6.qmssales.nl YES YES 2026-04-22 12:42:26 2a02:cc8::102:132 DNS Lookup Test
https://ipv6.hmstaging.nl YES YES 2026-04-22 11:38:07 2a02:cc8::102:132 DNS Lookup Test
https://ipv6.jdgames.nl YES YES 2026-04-22 11:32:37 2a10:92c0:1:0:5::4e DNS Lookup Test
https://ipv6.sandervansteenderendekok.nl YES YES 2026-04-22 11:03:06 2a10:92c0:1:0:5::ac DNS Lookup Test
https://ipv6.strongevents.nl YES YES 2026-04-22 11:02:01 2a10:92c0:1:0:5::ac DNS Lookup Test
https://ipv6.krabodev.nl YES YES 2026-04-22 08:44:22 2a04:3544:1000:1510:3cc8:64ff:fefa:3e88 DNS Lookup Test
https://ipv6.mijngscleaning.nl YES YES 2026-04-22 08:33:32 2a02:cc8::102:229 DNS Lookup Test
https://ipv6.projekt-xl.nl YES YES 2026-04-22 08:00:56 2a03:3b00:1:0:700a:b7ff:fe10:4516 DNS Lookup Test
https://ipv6.blokburg.nl YES YES 2026-04-22 07:33:23 2a10:92c0:1:0:5::8b DNS Lookup Test
https://ipv6.kmeurs.nl YES YES 2026-04-22 06:15:41 2a0b:c900:0:2::21 DNS Lookup Test
https://ipv6.tilburgwaterval.nl YES YES 2026-04-22 05:51:14 2a03:3b00:1:0:700a:b7ff:fe10:4516 DNS Lookup Test
https://ipv6.beeldjesvanisa.nl YES YES 2026-04-22 04:38:34 2a02:cc8::102:132 DNS Lookup Test
https://ipv6.lawijn.nl YES YES 2026-04-22 04:36:38 2a0b:c900:0:2::21 DNS Lookup Test
https://ipv6.sickman-imp.nl YES YES 2026-04-22 03:59:24 2a02:cc8::102:229 DNS Lookup Test
https://ipv6.boerenchips.nl YES YES 2026-04-22 03:21:08 2a02:cc8::103:51 DNS Lookup Test
https://ipv6.ambachtelijkechips.nl YES YES 2026-04-22 03:21:07 2a02:cc8::103:51 DNS Lookup Test
https://ipv6.mijnakengroen.nl YES YES 2026-04-22 02:42:38 2a02:cc8::102:229 DNS Lookup Test
https://ipv6.theomiddelkamp.nl YES YES 2026-04-22 02:25:06 2a10:92c0:1:0:5::b4 DNS Lookup Test
https://ipv6.mijncadiertuinman.nl YES YES 2026-04-22 02:23:05 2a02:cc8::102:229 DNS Lookup Test
https://ipv6.yourimuldergamedev.nl YES YES 2026-04-22 01:48:33 2a10:92c0:1:0:5::d6 DNS Lookup Test
https://ipv6.jerimu.nl YES YES 2026-04-22 01:41:30 2a10:92c0:1:0:5::4f DNS Lookup Test
https://ipv6.robertbraam.nl YES YES 2026-04-22 01:28:01 2a04:3544:1000:1510:3cc8:64ff:fefa:2c93 DNS Lookup Test
https://ipv6.vveresidentiededommel.nl YES YES 2026-04-22 00:56:36 2a04:3544:1000:1510:3cc8:64ff:fefa:4d32 DNS Lookup Test
https://ipv6.rcvanvliet.nl YES YES 2026-04-22 00:42:24 2a03:3b00:1:0:700a:b7ff:fe10:6722 DNS Lookup Test
https://ipv6.ontwikkel-wbf.nl YES YES 2026-04-22 00:29:40 2a03:3b00:1:0:700a:b7ff:fe10:5beb DNS Lookup Test
https://ipv6.beyondexperience.nl YES YES 2026-04-22 00:21:12 2a03:3b00:1:0:700a:b7ff:fe10:3ee9 DNS Lookup Test
https://ipv6.kaashosting.nl YES YES 2026-04-22 00:04:35 2a10:92c0:1:0:5::58 DNS Lookup Test
https://ipv6.duurzaam-energieproject.nl YES YES 2026-04-21 23:41:22 2a03:3b00:1:0:700a:b7ff:fe10:5beb DNS Lookup Test
https://ipv6.mijnsattermontage.nl YES YES 2026-04-21 23:07:06 2a02:cc8::102:229 DNS Lookup Test
https://ipv6.ostatistics.nl YES YES 2026-04-21 22:09:26 2a10:92c0:1:0:5::7d DNS Lookup Test
https://ipv6.koningsdaghouten.nl YES YES 2026-04-21 22:00:25 2a10:92c0:1:0:5::5c DNS Lookup Test
https://ipv6.sokken-online.nl YES YES 2026-04-21 21:39:17 2a04:3544:1000:1510:3cc8:64ff:fefa:4d32 DNS Lookup Test
https://ipv6.runway28.nl YES YES 2026-04-21 21:14:38 2a03:3b00:1:0:700a:b7ff:fe10:29d5 DNS Lookup Test
https://ipv6.mijnvandijkgroen.nl YES YES 2026-04-21 20:54:39 2a02:cc8::102:229 DNS Lookup Test
https://ipv6.standby-obl.nl YES YES 2026-04-21 19:52:12 2a02:cc8::103:51 DNS Lookup Test
https://ipv6.mijndecolm.nl YES YES 2026-04-21 19:51:45 2a02:cc8::102:229 DNS Lookup Test
https://ipv6.mijnvanderasdonk.nl YES YES 2026-04-21 19:50:27 2a02:cc8::102:229 DNS Lookup Test
https://ipv6.mijnbroosgroenvoorziening.nl YES YES 2026-04-21 19:42:42 2a02:cc8::102:229 DNS Lookup Test
https://ipv6.mijnrissikhoveniers.nl YES YES 2026-04-21 19:41:10 2a02:cc8::102:229 DNS Lookup Test
https://ipv6.wsowebhosting.nl YES YES 2026-04-21 19:00:19 2a02:cc8::102:132 DNS Lookup Test
https://ipv6.grashuisavl.nl YES YES 2026-04-21 18:14:49 2a10:92c0:1:0:5::d DNS Lookup Test
https://ipv6.demavie.nl YES YES 2026-04-21 18:10:46 2a10:92c0:1:0:5::40 DNS Lookup Test
https://ipv6.ajmcleaning.nl YES YES 2026-04-21 18:06:58 2a02:cc8::102:132 DNS Lookup Test
https://ipv6.timkok.nl YES YES 2026-04-21 17:33:57 2a03:3b00:1:0:700a:b7ff:fe10:3ee9 DNS Lookup Test
https://ipv6.hornet.sun.utwente.nl YES YES 2026-04-21 15:44:54 2001:67c:2564:a120:1::5b DNS Lookup Test
https://ipv6.26.calslaan.nl YES YES 2026-04-21 15:29:26 2001:67c:2564:a120:1::4a DNS Lookup Test
https://ipv6.nextstep-projects.nl YES YES 2026-04-21 15:09:48 2a03:3b00:1:0:700a:b7ff:fe10:3ee9 DNS Lookup Test
https://ipv6.onlinedeelname.nl YES YES 2026-04-21 12:24:57 2a03:3b00:1:0:700a:b7ff:fe10:73cc DNS Lookup Test
https://ipv6.ontruimingennoord.nl YES YES 2026-04-21 12:23:36 2a03:3b00:1:0:700a:b7ff:fe10:73cc DNS Lookup Test
https://ipv6.keithexportservices.nl YES YES 2026-04-21 12:12:29 2a03:3b00:1:0:700a:b7ff:fe10:73cc DNS Lookup Test
https://ipv6.pdaforu.nl YES YES 2026-04-21 12:10:09 2a03:3b00:1:0:700a:b7ff:fe10:5500 DNS Lookup Test
https://ipv6.veerbouw.nl YES YES 2026-04-21 11:56:51 2a03:3b00:1:0:700a:b7ff:fe10:29d5 DNS Lookup Test
https://ipv6.okhost.nl YES YES 2026-04-21 11:52:28 2a03:3b00:1:0:700a:b7ff:fe10:5500 DNS Lookup Test
https://ipv6.millautraining.nl YES YES 2026-04-21 11:48:05 2a03:3b00:1:0:700a:b7ff:fe10:5500 DNS Lookup Test
https://ipv6.buitenplaats-spijkerbosch.nl YES YES 2026-04-21 11:18:34 2a03:3b00:1:0:700a:b7ff:fe10:5910 DNS Lookup Test
https://ipv6.kinderverpleegkunde.nl YES YES 2026-04-21 10:32:11 2a03:3b00:1:0:700a:b7ff:fe10:5910 DNS Lookup Test
https://ipv6.studiofloreo.nl YES YES 2026-04-21 09:03:34 2a10:92c0:1:0:5::ad DNS Lookup Test
https://ipv6.mijnafinam.nl YES YES 2026-04-20 15:35:17 2a02:cc8::102:228 DNS Lookup Test
https://ipv6.mijnschaffelaarhoveniers.nl YES YES 2026-04-20 15:27:16 2a02:cc8::102:229 DNS Lookup Test
https://ipv6.drnl.nl YES YES 2026-04-20 13:43:03 2a0e:c9c0:4:2::10 DNS Lookup Test
https://ipv6.petervandoorn.nl YES YES 2026-04-20 12:53:50 2a10:92c0:1:0:5::82 DNS Lookup Test
https://ipv6.testendoenwehier.nl YES YES 2026-04-20 12:39:23 2a02:cc8::102:132 DNS Lookup Test
https://ipv6.remcojacobs.nl YES YES 2026-04-20 11:33:52 2a02:cc8::102:42 DNS Lookup Test
https://ipv6.hoogegraven.nl YES YES 2026-04-20 11:12:10 2a02:cc8::103:42 DNS Lookup Test
https://ipv6.mijnhdrelektrotechniek.nl YES YES 2026-04-20 10:39:54 2a02:cc8::102:229 DNS Lookup Test
https://ipv6.ajmcleaningendakwerken.nl YES YES 2026-04-20 10:17:30 2a02:cc8::102:132 DNS Lookup Test
https://ipv6.maristen.nl YES YES 2026-04-20 10:06:37 2a03:3b00:1:0:700a:b7ff:fe10:1286 DNS Lookup Test
https://ipv6.pubcobv.nl YES YES 2026-04-20 07:35:15 2a04:3544:1000:1510:3cc8:64ff:fefa:4d32 DNS Lookup Test
https://ipv6.colorsathome-wognum.nl YES YES 2026-04-20 06:50:10 2a02:cc8::102:229 DNS Lookup Test
https://ipv6.peetersverf.nl YES YES 2026-04-20 06:41:32 2a02:cc8::102:229 DNS Lookup Test
https://ipv6.bee-hosted.nl YES YES 2026-04-20 05:42:31 2a02:9e0:2000::212 DNS Lookup Test
https://ipv6.w-vanleeuwen.nl YES YES 2026-04-20 05:29:11 2a02:cc8::102:132 DNS Lookup Test
https://ipv6.blijwinkelen.nl YES YES 2026-04-20 04:48:00 2a02:cc8::102:132 DNS Lookup Test
https://ipv6.kristeldegroot.nl YES YES 2026-04-20 02:05:44 2a10:92c0:1:0:5::5e DNS Lookup Test
https://ipv6.blijgezicht.nl YES YES 2026-04-20 02:04:37 2a02:cc8::102:132 DNS Lookup Test
https://ipv6.mechelerhofvve.nl YES YES 2026-04-20 01:55:10 2a10:92c0:1:0:5::6b DNS Lookup Test
https://ipv6.destadshofvianen.nl YES YES 2026-04-20 01:49:18 2a10:92c0:1:0:5::1e DNS Lookup Test
https://ipv6.delanoboer.nl YES YES 2026-04-20 01:49:15 2a10:92c0:1:0:5::1c DNS Lookup Test
https://ipv6.rijschoolsaskiaweenk.nl YES YES 2026-04-20 01:43:40 2a10:92c0:1:0:5::d1 DNS Lookup Test
https://ipv6.semkoopman.nl YES YES 2026-04-20 01:43:37 2a10:92c0:1:0:5::a3 DNS Lookup Test
https://ipv6.famdwars.nl YES YES 2026-04-20 01:43:36 2a10:92c0:1:0:5::7b DNS Lookup Test
https://ipv6.fwts.nl YES YES 2026-04-20 01:43:21 2a10:92c0:1:0:5::2f DNS Lookup Test
https://ipv6.mc-group.nl YES YES 2026-04-20 00:53:51 2a02:cc8::102:132 DNS Lookup Test
https://ipv6.hoeveiligisjouwdomein.nl YES YES 2026-05-04 23:11:37 2001:67c:78:363:195:60:214:242 DNS Lookup Test
https://ipv6.infopost.nl YES YES 2026-04-28 10:41:01 2a03:3b00:1:0:700a:b7ff:fe10:6c75 DNS Lookup Test
https://ipv6.b2btonerinktshop.nl YES YES 2026-04-26 07:03:39 2a03:3b00:1:0:700a:b7ff:fe10:73cc DNS Lookup Test
https://ipv6.chromazone.nl YES YES 2026-04-22 11:21:26 2a02:cc8::102:132 DNS Lookup Test
https://ipv6.dev4.batch.internet.nl YES YES 2026-04-22 08:55:25 2a00:d00:ff:162:62:204:66:46 DNS Lookup Test
https://ipv6.cyberfusion-disp.nl YES YES 2026-04-22 05:09:25 2a0c:eb00:0:f7::c DNS Lookup Test
https://ipv6.huntdetachering.nl YES YES 2026-04-22 00:15:38 2a03:3b00:1:0:700a:b7ff:fe10:4516 DNS Lookup Test
https://ipv6.dev1.internet.nl YES YES 2026-04-21 11:36:11 2a00:d00:ff:162:62:204:66:35 DNS Lookup Test
https://ipv6.pro-enco.nl YES YES 2026-04-20 07:29:02 2a04:3544:1000:1510:3cc8:64ff:fefa:2c93 DNS Lookup Test
https://ipv6.disabilitystudies.nl YES YES 2026-04-29 07:38:55 2a03:3b00:1:0:700a:b7ff:fe10:4279 DNS Lookup Test
https://ipv6.wrakkenmuseum.nl YES YES 2026-04-28 12:23:01 2a03:3b00:1:0:700a:b7ff:fe10:4279 DNS Lookup Test
https://ipv6.drive.silvisual.nl YES YES 2026-04-22 11:27:26 2a00:7c80:0:71::2 DNS Lookup Test
https://ipv6.molendelastdrager.nl YES YES 2026-04-22 04:42:05 2a10:92c0:1:0:5::23 DNS Lookup Test
https://ipv6.hofstad-search.nl YES YES 2026-04-20 20:32:15 2a05:1500:600:8:1c00:6eff:fe00:1456 DNS Lookup Test
https://ipv6.osp.nl YES YES 2026-04-20 03:29:54 2a03:3b00:1:0:700a:b7ff:fe10:1286 DNS Lookup Test
http://ipv6.dehoopwieringerwaard.nl YES NO 2026-05-07 08:43:03 2a10:92c0:1:0:5::c0 DNS Lookup Test
http://ipv6.geluidsdichtmaken.nl NO NO 2026-05-07 08:27:14 2a10:92c0:1:0:5::77 DNS Lookup Test
http://ipv6.markdereus.nl NO NO 2026-05-07 07:56:56 2a00:f10:305:0:1c00:10ff:fe00:513 DNS Lookup Test
http://ipv6.initfour.nl YES NO 2026-05-07 06:32:27 2a01:1b0:7999:408:144::35 DNS Lookup Test
http://ipv6.bedieningsservice.nl YES NO 2026-05-07 06:27:01 2a03:3b00:1:0:700a:b7ff:fe10:4241 DNS Lookup Test
http://ipv6.eendrachtshoeve.nl YES NO 2026-05-07 05:55:18 2a02:cc8::103:45 DNS Lookup Test
http://ipv6.arnoutsadvies.nl YES NO 2026-05-07 05:39:49 2a12:5040:1:303:58b1:35ff:fe08:dbb4 DNS Lookup Test
http://ipv6.molenvanwest.nl YES NO 2026-05-07 05:26:44 2a12:5040:1:303:58b1:35ff:fe08:dbb4 DNS Lookup Test
http://ipv6.stevensmax.nl NO NO 2026-05-07 02:46:20 2a10:92c0:1:0:5::ab DNS Lookup Test
http://ipv6.renzcom.nl NO NO 2026-05-07 02:44:48 2a10:92c0:1:0:5::90 DNS Lookup Test
http://ipv6.olafblom.nl NO NO 2026-05-07 02:43:37 2a10:92c0:1:0:5::7a DNS Lookup Test
http://ipv6.kapsalonclassic.nl NO NO 2026-05-07 02:42:39 2a10:92c0:1:0:5::59 DNS Lookup Test
http://ipv6.iddovandergiessen.nl YES NO 2026-05-07 02:39:30 2a10:92c0:1:0:5::47 DNS Lookup Test
http://ipv6.voorverfenwonen-winkels.nl YES NO 2026-05-07 02:28:28 2a02:cc8::102:229 DNS Lookup Test
http://ipv6.voorverfenwonen-morshuis.nl YES NO 2026-05-07 02:28:07 2a02:cc8::102:229 DNS Lookup Test
http://ipv6.horst-voormooiwonen.nl YES NO 2026-05-07 02:27:16 2a02:cc8::102:229 DNS Lookup Test
http://ipv6.voorverfenwonen-remans.nl YES NO 2026-05-07 02:26:16 2a02:cc8::102:229 DNS Lookup Test
http://ipv6.zlimbest.nl YES NO 2026-05-07 01:14:16 2a03:3b00:1:0:700a:b7ff:fe10:75d9 DNS Lookup Test
http://ipv6.gaasperplaza.nl YES NO 2026-05-06 22:56:22 2a12:5040:1:303:be24:11ff:fe24:ef6e DNS Lookup Test
http://ipv6.theoriemasters.nl YES NO 2026-05-06 22:15:25 2a12:5040:1:303:8c01:f1ff:fe77:caab DNS Lookup Test
http://ipv6.isaacnewton.utwente.nl YES NO 2026-05-06 21:20:52 2001:67c:2564:a120:1::10 DNS Lookup Test
http://ipv6.johnkoomenportaal.nl YES NO 2026-05-06 18:47:34 2a02:cc8::102:227 DNS Lookup Test
http://ipv6.ilonakampenfotografie.nl YES NO 2026-05-06 18:20:45 2a00:f10:305:0:1c00:e7ff:fe00:52d DNS Lookup Test
http://ipv6.detandmeester.nl YES NO 2026-05-06 17:53:49 2a03:3b00:1:0:700a:b7ff:fe10:1cdf DNS Lookup Test
http://ipv6.zwemtotaal.nl YES NO 2026-05-06 17:50:47 2a04:3544:1000:1510:3cc8:64ff:fefa:31e3 DNS Lookup Test
http://ipv6.easyhandling.nl YES NO 2026-05-06 17:28:07 2a05:d012:9b8:7793:8342:937d:853c:3e36 DNS Lookup Test
http://ipv6.rcmbouw.nl YES NO 2026-05-06 17:13:05 2a12:5040:1:302:6068:aeff:fe25:926 DNS Lookup Test
http://ipv6.mijnsatterhoveniers.nl YES NO 2026-05-06 15:43:17 2a02:cc8::102:227 DNS Lookup Test
http://ipv6.afinamportaal.nl YES NO 2026-05-06 14:15:53 2a02:cc8::102:228 DNS Lookup Test
http://ipv6.zeepbol.nl YES NO 2026-05-06 13:23:57 2a03:3b00:1:0:700a:b7ff:fe10:7d00 DNS Lookup Test
YES NO 2026-05-06 13:23:49 2a03:3b00:1:0:700a:b7ff:fe10:7d00 DNS Lookup Test
http://ipv6.videler-beveiliging.nlVideler Inbraakbeveiliging
YES NO 2026-05-06 13:23:02 2a03:3b00:1:0:700a:b7ff:fe10:7d00 DNS Lookup Test
http://ipv6.quantumtouchhealing.nlQuantum Touch Healing » Welkom
YES NO 2026-05-06 13:19:50 2a03:3b00:1:0:700a:b7ff:fe10:7d00 DNS Lookup Test
http://ipv6.ossewatervrienden.nlRecreatief zwemmen bij de Osse Watervrienden
YES NO 2026-05-06 13:17:08 2a03:3b00:1:0:700a:b7ff:fe10:7d00 DNS Lookup Test
http://ipv6.onlineorv.nlOnline Je Pensioen :: Je snelste Pensioen op internet
YES NO 2026-05-06 13:16:22 2a03:3b00:1:0:700a:b7ff:fe10:7d00 DNS Lookup Test
http://ipv6.olifantenco.nl YES NO 2026-05-06 13:16:14 2a03:3b00:1:0:700a:b7ff:fe10:7d00 DNS Lookup Test
http://ipv6.moveconsultancy.nl NO NO 2026-05-06 13:15:24 2a03:3b00:1:0:700a:b7ff:fe10:7d00 DNS Lookup Test
http://ipv6.cabrioservicememelink.nl YES NO 2026-05-06 13:15:09 2a03:3b00:1:0:700a:b7ff:fe10:7d00 DNS Lookup Test
http://ipv6.m13.nl YES NO 2026-05-06 13:14:51 2a03:3b00:1:0:700a:b7ff:fe10:7d00 DNS Lookup Test
http://ipv6.kingston-door.nl NO NO 2026-05-06 13:14:13 2a03:3b00:1:0:700a:b7ff:fe10:7d00 DNS Lookup Test
http://ipv6.isbnindex.nl YES NO 2026-05-06 13:13:10 2a03:3b00:1:0:700a:b7ff:fe10:7d00 DNS Lookup Test
http://ipv6.e3bedrijfssystemen.nl YES NO 2026-05-06 13:11:28 2a03:3b00:1:0:700a:b7ff:fe10:7d00 DNS Lookup Test
http://ipv6.alternativecarrepair.nl YES NO 2026-05-06 13:09:43 2a03:3b00:1:0:700a:b7ff:fe10:7d00 DNS Lookup Test
http://ipv6.pricall.nl YES NO 2026-05-06 12:06:27 2a03:3b00:1:0:700a:b7ff:fe10:7d00 DNS Lookup Test
http://ipv6.playid.nl YES NO 2026-05-06 12:05:51 2a03:3b00:1:0:700a:b7ff:fe10:7d00 DNS Lookup Test
http://ipv6.mondodimedia.nl YES NO 2026-05-06 12:01:40 2a03:3b00:1:0:700a:b7ff:fe10:7d00 DNS Lookup Test
http://ipv6.creations.nl YES NO 2026-05-06 12:01:25 2a03:3b00:1:0:700a:b7ff:fe10:7d00 DNS Lookup Test
http://ipv6.constructsloten.nl YES NO 2026-05-06 12:00:39 2a03:3b00:1:0:700a:b7ff:fe10:7d00 DNS Lookup Test
http://ipv6.keuken-advies.nl YES NO 2026-05-06 11:59:53 2a03:3b00:1:0:700a:b7ff:fe10:7d00 DNS Lookup Test
http://ipv6.frankgunning.nl YES NO 2026-05-06 11:57:34 2a03:3b00:1:0:700a:b7ff:fe10:7d00 DNS Lookup Test
http://ipv6.architectenbureaugroenewegen.nl YES NO 2026-05-06 11:54:34 2a03:3b00:1:0:700a:b7ff:fe10:7d00 DNS Lookup Test
http://ipv6.franswilbrink.nl YES NO 2026-05-06 11:51:34 2a00:1ca8:e:390::5 DNS Lookup Test
http://ipv6.activum-rental.nl YES NO 2026-05-06 11:16:47 2a02:cc8::102:228 DNS Lookup Test
http://ipv6.boxstatus.nl NO NO 2026-05-06 10:02:49 2001:7b8:60c:1:4:47:9a:4 DNS Lookup Test
http://ipv6.gaelle.nl YES NO 2026-05-06 09:58:13 2a10:92c0:1:0:5::31 DNS Lookup Test
http://ipv6.relatietherapie-praktijk.nl YES NO 2026-05-06 09:52:59 2a12:5040:1:303:a47b:4eff:fe38:2c24 DNS Lookup Test
http://ipv6.m4dw.nl YES NO 2026-05-06 09:35:03 2a12:5040:1:303:a47b:4eff:fe38:2c24 DNS Lookup Test
http://ipv6.mijnhoveniersarjo.nl YES NO 2026-05-06 08:26:50 2a02:cc8::102:228 DNS Lookup Test
http://ipv6.mijnvanderwelhoveniers.nl YES NO 2026-05-06 08:26:44 2a02:cc8::102:228 DNS Lookup Test
http://ipv6.niceteleservice.nl YES NO 2026-05-06 08:25:59 2a02:cc8::102:228 DNS Lookup Test
http://ipv6.mijnroald.nl YES NO 2026-05-06 08:25:50 2a02:cc8::102:228 DNS Lookup Test
http://ipv6.mijnhovenierotte.nl YES NO 2026-05-06 08:25:44 2a02:cc8::102:228 DNS Lookup Test
http://ipv6.mijngiddinghoveniers.nl YES NO 2026-05-06 08:25:15 2a02:cc8::102:228 DNS Lookup Test
http://ipv6.mijnsteengoedid.nl YES NO 2026-05-06 08:24:12 2a02:cc8::102:228 DNS Lookup Test
http://ipv6.combitel.nl YES NO 2026-05-06 08:23:59 2a02:cc8::102:228 DNS Lookup Test
http://ipv6.dutchnegotiationnetwork.nl YES NO 2026-05-06 07:53:26 2001:67c:2564:a120:1::70 DNS Lookup Test
http://ipv6.foton.utwente.nl YES NO 2026-05-06 07:51:29 2001:67c:2564:a120:1::2b DNS Lookup Test
http://ipv6.mijnbronbemaling.nl YES NO 2026-05-06 07:02:40 2a02:cc8::102:228 DNS Lookup Test
http://ipv6.mijndenengelse.nl YES NO 2026-05-06 07:02:39 2a02:cc8::102:228 DNS Lookup Test
http://ipv6.4happyfeet.nl NO NO 2026-05-06 06:41:38 2001:67c:2564:a120:1::51 DNS Lookup Test
http://ipv6.seniorplaza.nl YES NO 2026-05-06 06:14:37 2a03:3b00:1:0:700a:b7ff:fe10:4429 DNS Lookup Test
http://ipv6.rademakerosteopathie.nl YES NO 2026-05-06 06:12:47 2a12:5040:1:303:8c01:f1ff:fe77:caab DNS Lookup Test
http://ipv6.taxateurlelystad.nl YES NO 2026-05-06 05:04:58 2a03:3b00:1:0:700a:b7ff:fe10:737a DNS Lookup Test
http://ipv6.tegelhandelbosch.nl NO NO 2026-05-06 01:45:00 2a02:4780:d:9e2f::1 DNS Lookup Test
http://ipv6.schilderijenmetbetekenis.nl YES NO 2026-05-05 20:50:08 2a04:3544:1000:1510:3cc8:64ff:fefa:31e3 DNS Lookup Test
http://ipv6.frlpost.nl YES NO 2026-05-05 20:40:17 2a03:3b00:1:0:700a:b7ff:fe10:4516 DNS Lookup Test
http://ipv6.lil-aime.nl YES NO 2026-05-05 20:27:56 2a03:3b00:1:0:700a:b7ff:fe10:6c75 DNS Lookup Test
http://ipv6.architexor.nl YES NO 2026-05-05 19:52:07 2001:7b8:620:1::d59a:e245 DNS Lookup Test
http://ipv6.dolfweverink.nl YES NO 2026-05-05 18:24:48 2a12:5040:2:600:be24:11ff:fe86:64ed DNS Lookup Test
http://ipv6.modehuispleunis.nl YES NO 2026-05-05 17:29:57 2a12:5040:1:303:c8bd:5eff:fe8a:cfcb DNS Lookup Test
http://ipv6.koolenglas.nl YES NO 2026-05-05 17:26:58 2a12:5040:1:303:c8bd:5eff:fe8a:cfcb DNS Lookup Test
http://ipv6.consumentenadviesnederland.nl YES NO 2026-05-05 17:25:16 2a03:3b00:1:0:700a:b7ff:fe10:3ee9 DNS Lookup Test
http://ipv6.grotezuidwesthoek.nlStichting De Grote Zuidwesthoek
YES NO 2026-05-05 16:47:32 2a03:3b00:1:0:700a:b7ff:fe10:6c75 DNS Lookup Test
http://ipv6.agf-ramakers.nl YES NO 2026-05-05 15:51:32 2a12:5040:1:303:1086:43ff:fe1c:a89c DNS Lookup Test
http://ipv6.mijngreendex.nl YES NO 2026-05-05 14:37:56 2a02:cc8::102:228 DNS Lookup Test
http://ipv6.mijnfonslinders.nl YES NO 2026-05-05 14:37:52 2a02:cc8::102:228 DNS Lookup Test
http://ipv6.mijnbthoveniers.nl YES NO 2026-05-05 14:37:48 2a02:cc8::102:228 DNS Lookup Test
http://ipv6.gijsriptuinen.nl YES NO 2026-05-05 14:37:42 2a02:cc8::102:228 DNS Lookup Test
http://ipv6.vrouwenplek.nl YES NO 2026-05-05 14:28:56 2a03:3b00:1:0:700a:b7ff:fe10:4516 DNS Lookup Test
http://ipv6.mijnttbsmeulders.nl YES NO 2026-05-05 13:48:14 2a02:cc8::102:228 DNS Lookup Test
YES NO 2026-05-05 12:52:08 2a03:3b00:1:0:700a:b7ff:fe10:29d5 DNS Lookup Test
http://ipv6.linux4joy.nl YES NO 2026-05-05 11:50:47 2a01:4f9:c011:acae::1 DNS Lookup Test
http://ipv6.mijnmpshoveniers.nl YES NO 2026-05-05 11:41:23 2a02:cc8::102:228 DNS Lookup Test
http://ipv6.mijnrietdekkervanginkel.nl YES NO 2026-05-05 11:41:11 2a02:cc8::102:228 DNS Lookup Test
http://ipv6.hakog.nl YES NO 2026-05-05 11:40:54 2a02:cc8::102:228 DNS Lookup Test
http://ipv6.winketendrinken.nl YES NO 2026-05-05 11:38:29 2a12:5040:1:303:be24:11ff:fe24:ef6e DNS Lookup Test
http://ipv6.madewithsolidhand.nl YES NO 2026-05-05 11:36:42 2a0e:6440:8000:1101:11:10:1:7 DNS Lookup Test
http://ipv6.ministervanhoutenlaan29.nlMinister van Houtenlaan 29 – Een huis van elastiek in Velsen-Zuid
YES NO 2026-05-05 11:35:12 2a0e:6440:8000:1101:11:10:1:18 DNS Lookup Test
http://ipv6.vrienden-van-d-arc.nld'Arc.nl - Monday I've got Friday on my Mind...
YES NO 2026-05-05 11:35:04 2a0e:6440:8000:1101:11:10:0:10 DNS Lookup Test
http://ipv6.ambitiouswomenut.utwente.nl YES NO 2026-05-05 09:30:48 2001:67c:2564:a120:1::71 DNS Lookup Test
http://ipv6.portal.skyliner.nl YES NO 2026-05-05 09:28:51 2001:7b8:1607:20::5 DNS Lookup Test
http://ipv6.huisartsvanniekerk.nl YES NO 2026-05-05 08:36:00 2a12:5040:1:303:be24:11ff:feb5:f09b DNS Lookup Test
http://ipv6.hteam.nlPreventie van hiv-infecties - HTEAM
YES NO 2026-05-05 08:00:22 2a03:3b00:1:0:700a:b7ff:fe10:5fbb DNS Lookup Test
http://ipv6.zoutkamerelst.nl YES NO 2026-05-05 07:58:34 2a03:3b00:1:0:700a:b7ff:fe10:75d9 DNS Lookup Test
http://ipv6.regentongigant.nl YES NO 2026-05-05 07:02:16 2a02:cc8::102:228 DNS Lookup Test
http://ipv6.deroerparel.nl YES NO 2026-05-05 03:55:36 2a12:5040:1:303:c8bd:5eff:fe8a:cfcb DNS Lookup Test
YES NO 2026-05-05 03:52:54 2a02:cc8::103:51 DNS Lookup Test
http://ipv6.re-mosae.nl YES NO 2026-05-05 03:30:49 2a03:3b00:1:0:700a:b7ff:fe10:3b2f DNS Lookup Test
http://ipv6.monsterapps.nl YES NO 2026-05-05 03:09:34 2a03:3b00:1:0:700a:b7ff:fe10:3b2f DNS Lookup Test
http://ipv6.theatervianen.nl YES NO 2026-05-05 00:51:11 2a10:92c0:1:0:5::b3 DNS Lookup Test